[{"header": {"dx": 0.06612293990616946, "dy": 0.0552356325346848, "nx": 98, "ny": 59, "la1": 35.046912555036876, "la2": 31.78801023549047, "lo1": -121.43107172385933, "lo2": -114.95102361305473, "refTime": "2026041001", "parameterCategory": 1, "parameterNumber": 2}, "data": [13.15, 13.67, 13.67, 14.11, 14.3, 13.86, 13.86, 14.3, 14.3, 14.75, 13.86, 12.07, 12.07, 10.73, 10.28, 10.73, 11.18, 10.28, 10.73, 9.39, 9.26, 9.03, 8.14, 8.56, 9.24, 9.24, 9.26, 9.26, 9.36, 8.94, 8.94, 8.45, 5.94, 4.74, 5.94, 5.21, 3.97, 5.37, 6.08, 6.9, 7.81, 9.04, 11.03, 11.92, 13.39, 14.42, 16.99, 18.73, 17.67, 16.48, 13.41, 12.02, 11.64, 10.99, 10.56, 10.79, 11.03, 11.28, 11.66, 12.23, 12.23, 12.56, 12.15, 12.15, 12.45, 12.45, 12.98, 12.8, 12.8, 13.01, 12.09, 11.66, 11.37, 11.09, 10.96, 10.96, 10.68, 11.03, 12.04, 10.93, 10.16, 9.81, 9.83, 8.94, 8.46, 7.92, 7.89, 7.85, 7.85, 7.85, 9.77, 10.65, 11.18, 12.07, 12.07, 11.62, 10.58, 9.2, 13.15, 13.67, 13.67, 13.67, 14.11, 14.3, 14.3, 14.3, 14.75, 14.75, 13.41, 13.41, 11.62, 10.73, 11.62, 11.18, 10.28, 11.62, 10.73, 9.39, 10.73, 10.14, 8.91, 8.6, 8.06, 8.77, 9.24, 9.24, 9.35, 8.9, 8.49, 7.55, 5.81, 4.43, 5.21, 6.4, 6.44, 5.1, 6.01, 6.32, 8.18, 9.97, 10.79, 12.79, 15.06, 16.92, 18.66, 17.78, 16.47, 13.86, 11.13, 10.0, 9.52, 9.3, 9.92, 10.63, 11.66, 11.66, 12.23, 12.56, 12.56, 12.45, 12.04, 12.04, 12.04, 12.72, 12.8, 13.01, 13.01, 12.58, 11.87, 11.09, 10.63, 10.63, 10.8, 11.09, 10.95, 11.03, 12.04, 10.93, 10.16, 9.81, 9.83, 8.94, 8.46, 7.92, 7.89, 7.85, 7.85, 7.85, 9.77, 10.65, 11.18, 12.07, 12.07, 11.62, 10.58, 9.2, 13.15, 13.67, 13.67, 13.67, 14.11, 14.75, 14.75, 14.75, 15.2, 14.75, 12.52, 10.28, 11.62, 11.62, 10.62, 10.62, 11.09, 11.53, 10.73, 11.62, 9.83, 11.18, 11.02, 9.75, 9.03, 8.14, 8.56, 8.8, 8.9, 8.94, 8.49, 7.42, 6.13, 5.37, 4.74, 7.07, 6.79, 6.32, 6.14, 6.58, 7.56, 10.43, 12.7, 14.65, 17.27, 17.91, 18.98, 16.54, 13.39, 8.93, 8.38, 9.0, 9.62, 9.96, 10.55, 11.03, 11.64, 12.03, 12.56, 12.56, 12.45, 12.45, 12.04, 12.04, 12.3, 12.58, 13.01, 13.01, 12.53, 11.92, 11.02, 11.04, 11.2, 10.8, 11.37, 11.18, 11.36, 13.32, 13.59, 11.51, 10.25, 9.83, 9.39, 8.94, 8.46, 7.92, 7.28, 7.63, 7.53, 9.54, 12.14, 12.86, 12.52, 12.52, 11.45, 10.0, 7.33, 6.98, 13.32, 13.15, 14.11, 13.67, 14.11, 14.75, 15.2, 15.2, 15.2, 14.3, 12.52, 10.73, 12.07, 11.18, 11.06, 11.09, 11.28, 11.71, 11.28, 11.55, 10.73, 10.73, 11.62, 11.55, 10.52, 9.54, 8.14, 8.77, 8.9, 8.49, 8.49, 8.67, 6.98, 4.71, 4.71, 6.64, 6.95, 7.9, 6.45, 7.79, 10.47, 12.36, 15.17, 15.25, 15.59, 16.15, 12.86, 9.09, 6.95, 8.22, 9.23, 10.3, 10.73, 10.37, 10.37, 11.04, 11.64, 11.64, 12.56, 12.56, 12.45, 12.04, 11.87, 12.3, 12.53, 12.71, 12.71, 12.04, 11.26, 10.19, 10.98, 11.66, 12.39, 11.21, 10.8, 11.51, 11.59, 13.38, 15.61, 12.96, 9.83, 9.83, 9.39, 8.9, 8.45, 7.89, 7.53, 7.53, 7.81, 12.04, 14.3, 12.96, 11.21, 9.08, 6.64, 6.64, 6.32, 6.01, 13.32, 13.72, 14.16, 14.11, 14.11, 14.75, 15.2, 15.2, 15.2, 14.3, 12.52, 10.28, 11.62, 10.96, 10.62, 11.51, 11.28, 11.71, 11.71, 11.71, 12.35, 10.28, 10.73, 12.07, 11.09, 11.02, 9.33, 8.91, 9.21, 8.41, 8.85, 9.83, 11.18, 9.67, 8.94, 7.9, 8.22, 7.78, 7.76, 9.09, 11.17, 12.33, 12.37, 12.98, 12.96, 10.48, 7.36, 7.18, 8.53, 9.59, 10.03, 10.37, 10.37, 10.37, 10.66, 11.42, 11.64, 12.15, 12.56, 12.56, 12.04, 12.3, 11.87, 12.09, 12.27, 12.04, 11.6, 10.03, 9.06, 9.8, 11.25, 13.03, 13.99, 13.47, 10.93, 10.26, 10.73, 11.62, 14.75, 13.86, 9.83, 9.36, 9.36, 8.8, 7.89, 7.85, 8.17, 8.38, 11.62, 14.03, 11.09, 8.53, 6.98, 4.0, 4.66, 5.21, 5.31, 6.32, 13.32, 13.72, 14.16, 14.16, 14.3, 14.75, 15.2, 15.2, 15.2, 14.3, 12.07, 9.83, 11.18, 10.52, 11.02, 10.75, 11.28, 11.71, 11.3, 11.72, 11.72, 11.71, 12.71, 12.96, 12.07, 11.84, 11.84, 10.38, 9.6, 9.2, 8.15, 8.54, 9.97, 12.0, 12.72, 11.6, 11.26, 10.82, 6.47, 3.59, 9.66, 13.57, 12.52, 11.62, 8.85, 7.41, 7.36, 8.42, 8.85, 9.34, 9.34, 9.69, 10.01, 10.37, 11.42, 11.64, 11.6, 12.15, 12.56, 12.56, 11.87, 11.37, 11.61, 11.8, 11.96, 10.94, 8.37, 7.51, 9.06, 10.92, 12.0, 12.65, 13.81, 15.36, 15.34, 10.7, 9.39, 9.39, 9.39, 12.52, 8.94, 8.9, 8.46, 8.01, 8.0, 8.49, 9.21, 10.01, 8.58, 7.13, 5.6, 4.75, 2.21, 2.69, 4.2, 5.59, 6.01, 7.59, 13.32, 13.72, 13.72, 14.16, 14.75, 15.2, 15.2, 15.2, 15.2, 13.41, 11.18, 8.94, 10.28, 10.14, 10.79, 10.27, 11.3, 11.72, 11.72, 11.44, 11.85, 13.57, 14.4, 15.05, 14.75, 14.3, 15.2, 14.03, 12.45, 8.59, 8.93, 8.4, 9.21, 10.22, 11.62, 13.86, 14.3, 13.86, 13.41, 0.0, 0.0, -0.0, -0.0, 4.98, 7.69, 6.72, 7.51, 8.76, 8.85, 9.42, 9.42, 9.34, 10.37, 11.04, 11.6, 11.6, 11.92, 11.79, 12.3, 11.87, 11.61, 11.11, 11.36, 11.45, 9.36, 7.78, 7.9, 8.01, 9.17, 10.98, 12.03, 12.96, 13.23, 14.58, 16.26, 15.49, 9.8, 8.94, 9.39, 9.83, 8.94, 8.46, 9.34, 10.22, 11.18, 11.02, 7.24, 2.72, 4.52, 4.24, 2.93, 1.44, 1.14, 1.67, 3.15, 5.1, 6.95, 6.71, 12.89, 13.72, 14.16, 14.6, 15.2, 15.2, 15.2, 15.2, 14.75, 12.71, 10.41, 8.91, 9.97, 10.38, 11.62, 9.7, 10.8, 11.85, 12.04, 12.3, 12.72, 12.85, 12.85, 14.99, 15.27, 14.75, 15.2, 15.65, 13.7, 12.45, 11.45, 11.91, 12.27, 12.27, 10.46, 11.44, 11.85, 10.18, 9.64, 11.62, -9.17, -3.36, -0.0, 3.42, 7.2, 6.65, 7.36, 9.17, 9.17, 10.02, 9.0, 10.04, 10.66, 11.02, 11.2, 11.5, 11.37, 11.61, 11.36, 11.33, 10.89, 10.41, 10.5, 7.72, 5.72, 7.25, 8.66, 8.93, 9.34, 11.04, 11.99, 13.15, 13.88, 14.06, 15.08, 15.08, 13.82, 10.28, 11.62, 12.96, 11.18, 8.49, 9.79, 11.18, 12.07, 12.04, 3.04, -0.0, 2.63, 2.06, -0.0, -0.0, -0.0, -0.0, 3.6, 4.83, 5.9, 6.17, 13.75, 14.19, 14.16, 14.75, 15.2, 15.2, 15.2, 15.2, 14.11, 12.35, 9.6, 7.27, 10.79, 11.12, 11.2, 10.41, 10.55, 10.99, 11.37, 11.6, 11.99, 11.99, 12.25, 13.28, 11.99, 11.18, 9.74, 13.41, 15.65, 13.86, 13.86, 15.2, 15.2, 12.39, 8.53, 9.3, 9.86, 10.58, 10.14, 9.96, 5.6, 2.81, 2.81, 4.81, 6.21, 6.97, 8.59, 9.48, 10.3, 10.63, 11.35, 10.04, 10.63, 10.63, 10.96, 10.55, 10.73, 10.6, 10.84, 11.21, 11.0, 10.28, 7.59, 4.87, 6.31, 8.05, 9.06, 9.62, 9.67, 10.04, 12.21, 13.05, 14.64, 14.66, 14.28, 13.41, 12.07, 11.62, 13.81, 16.49, 15.59, 8.91, 8.46, 8.9, 10.73, 10.4, 2.37, 2.37, 2.28, -0.0, -1.01, -2.12, -1.4, -0.0, 1.95, 4.71, 5.46, 4.4, 14.19, 14.19, 14.6, 14.75, 15.2, 15.2, 15.2, 15.2, 14.11, 12.35, 11.03, 9.42, 9.27, 11.28, 12.03, 11.64, 11.64, 12.0, 11.17, 10.12, 9.77, 10.12, 10.82, 12.79, 12.39, 10.75, 8.82, 10.73, 14.75, 14.16, 14.16, 16.09, 13.59, 6.0, 8.53, 9.2, 10.18, 9.16, 9.97, 10.79, 8.54, 7.78, 6.76, 5.95, 6.87, 8.22, 9.08, 10.62, 11.16, 11.03, 10.66, 10.66, 9.66, 9.67, 9.04, 9.43, 9.52, 9.58, 10.79, 10.7, 10.18, 6.69, 4.32, 4.98, 6.52, 8.05, 9.06, 9.2, 8.59, 9.81, 11.55, 12.96, 14.09, 14.65, 14.28, 13.41, 12.03, 11.91, 12.2, 14.37, 17.2, 15.87, 8.46, 8.01, 8.49, 8.18, 5.32, 5.1, 2.97, -0.0, -2.12, -3.45, -3.2, -0.0, 2.4, 5.46, 5.46, 4.96, 14.19, 14.19, 14.64, 14.75, 14.75, 15.2, 15.2, 14.75, 13.72, 12.04, 11.5, 11.26, 11.37, 12.11, 12.79, 13.07, 15.27, 14.42, 14.9, 15.78, 16.7, 16.54, 15.91, 14.31, 14.55, 12.07, 10.28, 10.28, 12.96, 14.3, 13.41, 12.86, 9.08, 5.2, 11.03, 11.62, 11.18, 10.0, 8.22, 10.3, 11.07, 10.02, 9.16, 8.22, 7.59, 7.59, 8.94, 9.3, 9.52, 9.08, 9.26, 9.56, 8.76, 8.01, 6.97, 6.45, 7.36, 8.22, 9.86, 10.27, 6.24, 3.29, 4.71, 5.73, 6.4, 7.93, 8.84, 8.18, 8.12, 8.64, 10.12, 11.99, 13.65, 14.06, 14.28, 14.28, 12.71, 11.45, 11.39, 13.44, 14.7, 15.96, 13.34, 9.79, 7.81, 5.37, 5.59, 6.32, 6.01, -0.0, -3.0, -5.06, -4.74, -3.2, -0.0, 7.59, 4.8, 6.32, 14.19, 14.19, 14.3, 14.75, 14.75, 14.75, 15.2, 14.75, 13.72, 12.46, 12.46, 12.56, 13.07, 12.79, 12.72, 12.2, 12.48, 14.3, 15.65, 16.96, 16.07, 15.65, 15.65, 16.09, 13.41, 12.96, 12.52, 7.6, 10.28, 8.94, 9.83, 10.28, 9.1, 8.4, 10.28, 10.2, 10.08, 9.17, 9.02, 9.97, 10.65, 10.73, 9.88, 8.22, 7.27, 6.64, 7.59, 7.59, 7.59, 8.24, 6.98, 7.73, 7.12, 6.43, 4.75, 4.93, 6.65, 8.01, 8.93, 7.27, 1.68, 3.25, 4.76, 5.02, 5.73, 6.47, 7.0, 7.11, 6.9, 7.38, 8.49, 9.84, 11.83, 13.11, 13.41, 13.29, 12.21, 11.2, 10.81, 11.69, 12.11, 13.01, 12.46, 9.32, 6.79, 6.32, 6.68, 7.76, 7.64, 3.6, -3.0, -7.44, -5.95, -5.06, -0.0, 7.9, 7.27, 5.37, 14.19, 14.19, 14.3, 14.75, 14.75, 14.75, 14.75, 14.3, 14.16, 13.31, 13.01, 13.15, 13.07, 13.7, 14.42, 14.81, 13.83, 12.96, 12.52, 12.95, 13.34, 12.91, 12.91, 12.95, 12.95, 12.5, 12.5, 12.46, 11.11, 8.94, 9.83, 11.14, 10.84, 10.56, 10.28, 9.76, 8.6, 8.82, 8.82, 9.52, 10.12, 10.79, 9.89, 8.93, 8.18, 7.44, 7.87, 8.03, 8.03, 6.95, 6.32, 6.24, 4.83, 3.36, 2.82, 4.24, 5.27, 9.8, 9.6, 4.71, -0.0, 2.47, 4.71, 4.98, 4.87, 4.76, 5.25, 6.35, 6.4, 7.82, 9.22, 10.51, 11.26, 11.33, 11.59, 12.72, 12.39, 9.84, 9.5, 10.48, 11.06, 10.68, 10.41, 10.99, 7.02, 8.06, 8.93, 8.99, 8.4, 6.32, -4.71, -7.2, -6.79, -7.15, 8.94, 10.73, 9.83, 7.6, 14.19, 14.19, 14.3, 14.3, 14.75, 14.75, 14.75, 14.3, 14.19, 13.75, 13.53, 13.96, 14.13, 14.56, 15.09, 15.61, 15.46, 15.17, 14.75, 14.3, 14.3, 14.29, 14.74, 14.69, 15.14, 13.81, 13.81, 13.81, 12.92, 11.61, 10.27, 10.7, 11.62, 10.28, 10.23, 8.79, 8.58, 8.99, 8.99, 9.6, 10.17, 10.6, 10.84, 10.6, 9.54, 8.8, 7.2, 8.72, 8.82, 8.03, 7.33, 6.32, 6.44, 2.82, 2.6, 4.2, 4.2, 10.61, 13.02, 5.82, -0.0, 2.54, 4.81, 4.81, 4.06, 4.06, 4.65, 4.65, 6.9, 7.38, 9.7, 10.9, 10.87, 9.85, 10.08, 7.9, 7.9, 10.28, 8.4, 8.4, 8.34, 8.42, 10.43, 12.58, 8.67, 9.36, 10.0, 10.18, 8.06, 8.3, -6.95, -7.6, -7.15, -7.15, -8.94, -10.28, 8.94, 0.0, 14.19, 14.19, 14.3, 14.3, 14.3, 14.75, 14.75, 14.75, 14.19, 14.19, 13.96, 13.96, 14.47, 14.56, 15.83, 16.27, 15.87, 16.05, 15.61, 15.65, 15.2, 15.2, 15.18, 15.18, 15.58, 15.51, 15.51, 14.63, 14.18, 13.36, 12.96, 11.16, 11.12, 10.28, 10.18, 9.33, 9.2, 8.21, 10.46, 9.42, 10.58, 11.57, 11.18, 10.62, 9.21, 8.77, 8.33, 8.38, 8.3, 7.87, 8.58, 8.23, 5.7, 4.71, 4.22, 4.46, 7.21, 9.83, 12.62, 9.16, 1.84, 2.6, 5.32, 5.32, 5.32, 5.32, 5.32, 6.5, 7.15, 8.22, 8.64, 11.2, 11.79, 10.14, -6.01, -2.69, 2.28, 5.64, 7.18, 9.0, 9.3, 9.67, 10.0, 9.86, 9.4, 11.64, 10.35, 10.08, 8.77, 9.7, 10.73, -8.94, -7.15, -6.79, -7.63, -6.32, 0.0, 0.0, 14.19, 14.19, 14.3, 14.3, 14.3, 14.3, 14.3, 14.75, 14.64, 14.19, 14.22, 14.47, 14.47, 14.95, 15.83, 16.47, 16.03, 16.48, 16.5, 16.09, 15.65, 15.65, 15.65, 15.63, 16.02, 15.95, 15.51, 15.53, 14.64, 14.26, 13.81, 13.86, 12.05, 10.22, 9.83, 8.44, 8.79, 8.99, 10.46, 10.66, 10.28, 10.73, 10.73, 9.83, 9.39, 8.05, 8.05, 7.89, 6.08, 6.44, 6.44, 5.69, 5.69, 5.69, 5.37, 6.8, 8.05, 9.39, 10.84, 8.49, 5.21, 5.21, 6.32, 6.32, 6.63, 6.98, 6.11, 6.95, 7.9, 8.24, 9.13, 10.7, 11.18, 8.87, 8.55, 4.36, 7.12, 9.31, 10.81, 10.9, 10.91, 10.9, 10.63, 10.43, 10.02, 8.9, 8.46, 8.49, 8.05, 8.05, 0.0, -5.95, -6.94, -7.63, -7.44, -6.32, -4.0, -4.0, 14.19, 14.19, 14.3, 13.86, 14.3, 14.3, 14.3, 14.75, 14.64, 14.66, 14.66, 14.68, 14.47, 15.14, 15.58, 16.09, 15.58, 16.48, 16.49, 16.54, 16.09, 16.09, 16.09, 15.62, 15.03, 15.06, 15.59, 15.59, 15.6, 16.08, 15.63, 15.65, 14.75, 12.47, 8.01, 8.49, 8.87, 10.18, 10.2, 10.28, 10.73, 9.39, 9.83, 8.05, 8.49, 8.49, 8.24, 6.44, 5.69, 6.79, 6.79, 7.15, 7.15, 7.15, 7.67, 8.0, 8.6, 9.46, 9.63, 8.15, 7.27, 6.64, 6.98, 7.6, 8.06, 7.12, 7.63, 7.47, 7.67, 9.89, 11.18, 10.96, 11.36, 10.73, 9.58, 9.36, 10.18, 12.09, 12.87, 12.26, 11.9, 11.88, 11.75, 11.3, 10.75, 9.26, 8.05, 8.05, 7.94, 4.0, -5.46, -7.21, -7.15, -8.49, -9.83, -9.39, 9.39, 9.39, 14.19, 14.19, 14.19, 13.86, 13.86, 14.3, 14.3, 14.3, 14.75, 14.66, 14.66, 14.68, 14.68, 15.12, 15.2, 14.75, 15.2, 16.04, 16.54, 16.09, 15.65, 15.62, 15.2, 14.73, 14.66, 15.13, 15.65, 15.65, 16.09, 16.54, 16.54, 16.54, 16.54, 14.73, 10.12, 6.94, 8.24, 9.46, 10.2, 10.2, 9.29, 8.38, 8.05, 8.49, 8.94, 8.67, 7.15, 6.32, 6.32, 7.67, 7.67, 6.98, 6.98, 6.98, 8.0, 8.0, 8.63, 9.04, 8.37, 7.81, 8.37, 8.18, 8.0, 8.6, 8.17, 7.42, 7.55, 8.05, 8.49, 11.09, 13.36, 11.96, 12.07, 14.03, 14.36, 13.82, 13.34, 14.26, 14.46, 13.43, 12.79, 12.29, 12.37, 11.42, 9.72, 8.36, 8.89, 8.05, 8.05, 9.75, -7.27, -8.05, -5.95, -4.96, -4.4, -0.0, -0.0, -0.0, 14.19, 14.19, 13.75, 13.86, 13.86, 13.86, 14.3, 14.3, 14.75, 14.66, 14.66, 14.68, 14.68, 14.68, 14.68, 15.99, 14.25, 15.65, 15.65, 15.15, 15.2, 15.53, 14.42, 15.59, 14.75, 16.54, 12.49, 16.5, 17.3, 14.66, 15.62, 16.09, 16.54, 16.09, 14.23, 9.6, 7.28, 7.32, 9.36, 10.91, 9.68, 9.34, 9.39, 8.94, 8.91, 8.05, 7.33, 7.67, 7.67, 8.0, 7.81, 7.44, 7.81, 7.44, 7.81, 8.15, 8.63, 8.54, 8.37, 8.37, 8.93, 9.04, 9.03, 8.29, 8.45, 8.01, 8.05, 8.49, 9.24, 11.78, 13.41, 14.66, 17.24, 18.85, 18.16, 16.54, 15.23, 14.99, 14.87, 14.87, 13.21, 13.32, 12.49, 11.6, 10.25, 8.9, 10.12, 11.02, 11.11, 10.28, 9.75, -6.95, -7.81, -5.36, -3.11, -0.0, -0.0, -0.0, 14.19, 14.19, 13.75, 13.86, 13.86, 13.86, 14.3, 14.3, 14.75, 14.75, 14.66, 14.68, 14.68, 14.69, 14.69, 14.25, 14.68, 14.3, 15.65, 15.2, 16.49, 15.3, 13.84, 14.79, 14.86, 15.9, 16.17, 14.62, 15.07, 15.65, 16.09, 16.09, 16.06, 16.51, 16.09, 13.75, 10.09, 9.1, 8.55, 7.43, 8.47, 8.94, 8.92, 8.74, 8.34, 9.63, 8.63, 8.63, 8.91, 8.0, 8.0, 8.0, 8.0, 8.0, 7.2, 7.82, 8.93, 7.06, 8.18, 9.2, 9.04, 9.03, 9.29, 9.29, 8.05, 8.05, 8.49, 8.94, 10.25, 11.62, 13.41, 16.46, 18.62, 19.6, 18.78, 17.41, 15.9, 15.27, 14.73, 14.3, 14.3, 14.3, 13.41, 11.62, 10.73, 10.26, 9.81, 9.74, 11.05, 9.74, 9.35, 11.4, -0.0, -3.25, -1.84, -0.0, -0.0, -0.0, 13.75, 14.19, 13.75, 13.75, 13.86, 13.86, 14.3, 14.3, 14.75, 14.75, 14.75, 14.68, 14.68, 14.69, 15.14, 15.14, 15.12, 13.77, 12.3, 14.56, 16.48, 15.61, 15.41, 14.11, 14.19, 15.18, 15.09, 15.62, 16.09, 16.54, 16.51, 16.51, 16.51, 16.44, 16.43, 15.2, 13.36, 11.13, 10.35, 8.84, 8.92, 9.39, 9.82, 9.76, 9.07, 10.41, 9.03, 9.03, 9.03, 8.6, 8.48, 8.06, 7.6, 7.6, 7.44, 6.79, 7.41, 7.02, 8.37, 8.63, 9.03, 9.03, 9.29, 9.39, 8.49, 8.94, 8.94, 9.39, 10.28, 11.62, 12.94, 15.12, 17.72, 18.71, 17.88, 16.91, 14.24, 14.07, 13.75, 13.57, 14.11, 14.22, 13.41, 12.07, 11.62, 10.28, 9.81, 9.81, 10.26, 10.26, 10.7, 12.52, 12.14, 5.1, 4.4, 6.14, 5.63, 5.63, 13.44, 13.77, 13.77, 13.77, 13.86, 13.86, 13.86, 14.3, 14.75, 14.75, 14.75, 14.75, 14.68, 14.69, 14.69, 15.14, 15.14, 14.25, 13.37, 13.77, 15.55, 16.05, 15.6, 15.43, 16.35, 16.84, 16.51, 15.65, 15.65, 16.09, 16.54, 16.52, 16.52, 16.52, 16.52, 16.07, 14.75, 12.94, 11.08, 10.19, 8.92, 9.39, 9.39, 9.39, 8.47, 7.84, 9.54, 9.76, 9.29, 8.85, 8.38, 7.94, 7.63, 6.9, 6.63, 6.32, 6.18, 6.83, 8.37, 8.63, 8.06, 9.21, 9.35, 9.39, 8.94, 9.39, 9.39, 9.39, 9.83, 11.11, 11.13, 13.2, 14.95, 17.47, 11.8, 10.66, 11.6, 11.82, 11.8, 12.42, 13.35, 13.35, 13.32, 12.52, 11.62, 10.28, 9.39, 9.39, 9.81, 10.26, 10.73, 11.59, 11.14, 7.31, 6.64, 6.7, 7.13, 7.13, 13.53, 13.53, 13.77, 13.77, 13.86, 13.86, 13.86, 14.3, 14.75, 14.75, 15.2, 15.2, 14.68, 14.69, 14.69, 15.15, 15.15, 14.69, 14.11, 14.37, 15.78, 15.61, 14.72, 15.17, 16.06, 16.96, 17.41, 16.99, 16.54, 15.65, 15.65, 16.09, 16.09, 16.09, 16.09, 16.09, 15.65, 13.41, 11.62, 10.71, 9.82, 9.37, 9.37, 8.94, 8.05, 7.07, 9.76, 9.39, 8.49, 8.05, 8.05, 7.45, 7.06, 6.44, 5.69, 6.01, 4.94, 6.48, 7.9, 7.42, 8.06, 8.9, 8.94, 8.94, 8.94, 8.94, 9.39, 9.39, 9.39, 8.63, 9.6, 10.24, 17.19, 16.48, 10.47, 8.94, 9.7, 11.53, 11.42, 11.26, 10.81, 11.83, 12.04, 11.84, 11.06, 10.28, 9.39, 9.39, 9.39, 10.58, 12.03, 10.84, 9.05, 7.61, 7.61, 7.59, 6.98, 6.98, 13.53, 13.53, 13.77, 13.77, 13.86, 13.86, 13.86, 14.3, 14.75, 14.75, 15.2, 15.2, 15.12, 14.69, 15.14, 15.15, 15.15, 14.7, 14.55, 14.58, 15.49, 15.95, 15.08, 14.21, 14.65, 15.99, 16.96, 17.41, 17.41, 16.52, 16.09, 15.2, 15.65, 15.65, 15.65, 15.65, 15.65, 13.86, 12.07, 10.73, 10.27, 10.27, 9.82, 8.94, 8.05, 7.15, 9.83, 9.39, 8.49, 8.05, 7.89, 7.47, 6.9, 6.08, 6.08, 4.56, 4.75, 5.15, 7.68, 8.54, 7.63, 8.0, 8.44, 8.44, 8.44, 8.9, 8.77, 9.32, 7.76, 7.81, 7.76, 14.3, 16.92, 18.17, 16.74, 13.2, 11.13, 9.76, 12.42, 11.8, 11.42, 10.15, 10.91, 11.47, 11.18, 10.02, 9.8, 8.94, 9.35, 9.06, 9.06, 8.8, 8.18, 7.95, 7.92, 6.98, 6.32, 6.32, 13.77, 13.77, 13.77, 13.77, 13.33, 13.41, 13.86, 14.3, 14.3, 14.75, 15.2, 15.2, 15.12, 15.14, 15.14, 15.15, 14.55, 14.55, 14.55, 15.02, 15.46, 16.37, 16.22, 15.38, 14.53, 14.99, 16.44, 16.89, 16.96, 16.96, 16.52, 16.07, 15.62, 15.18, 15.2, 15.2, 15.2, 14.75, 12.52, 10.73, 10.28, 9.83, 9.39, 9.39, 8.49, 7.6, 7.58, 7.6, 8.02, 7.92, 7.76, 9.33, 7.47, 6.8, 6.08, 5.37, 5.37, 5.36, 7.2, 8.0, 9.04, 7.85, 7.81, 8.29, 8.73, 8.56, 8.3, 8.4, 7.35, 8.12, 10.78, 12.52, 16.05, 16.53, 17.64, 17.79, 16.4, 15.35, 13.82, 10.7, 11.18, 11.2, 10.65, 10.65, 10.55, 9.83, 9.7, 9.36, 8.94, 8.48, 8.63, 8.88, 8.55, 8.06, 7.69, 6.68, 6.32, 6.32, 13.77, 13.77, 13.33, 13.33, 13.33, 13.41, 13.86, 14.3, 14.75, 14.75, 14.75, 15.12, 15.14, 15.58, 15.58, 14.99, 14.55, 14.55, 14.55, 15.02, 15.46, 16.37, 16.84, 16.26, 15.82, 14.97, 15.43, 16.44, 16.89, 16.89, 16.96, 16.52, 16.52, 15.62, 15.18, 15.18, 15.18, 15.18, 13.86, 11.18, 10.28, 10.28, 9.83, 9.39, 8.94, 8.05, 8.03, 7.6, 8.05, 8.46, 8.38, 7.48, 8.82, 7.06, 7.06, 7.2, 6.4, 6.94, 7.37, 7.89, 9.04, 9.63, 8.06, 8.29, 8.73, 8.48, 7.96, 7.27, 7.68, 8.82, 10.35, 12.45, 12.94, 15.31, 16.54, 16.85, 16.92, 17.17, 15.01, 11.62, 10.25, 11.09, 10.8, 10.0, 9.6, 10.01, 9.54, 8.9, 8.45, 7.89, 7.81, 8.55, 8.93, 8.18, 7.95, 7.35, 7.31, 7.31, 13.33, 13.33, 13.33, 13.33, 13.33, 13.86, 13.86, 14.3, 14.75, 14.75, 14.75, 15.12, 15.14, 15.58, 15.59, 14.99, 14.55, 14.55, 14.55, 15.02, 15.46, 15.93, 16.39, 16.66, 16.26, 15.82, 15.41, 15.98, 16.44, 16.44, 16.45, 15.99, 15.99, 16.44, 16.44, 15.99, 15.55, 15.55, 15.18, 13.84, 11.6, 10.28, 9.83, 9.39, 8.94, 8.49, 8.49, 8.05, 8.05, 8.05, 8.05, 8.02, 7.12, 7.11, 6.88, 6.45, 7.45, 6.94, 6.61, 6.79, 8.48, 9.06, 9.97, 8.0, 8.82, 7.37, 6.48, 7.27, 8.18, 9.2, 10.58, 11.59, 12.52, 13.31, 13.96, 14.92, 16.96, 16.84, 15.63, 11.6, 9.06, 9.86, 9.97, 8.43, 8.24, 8.67, 8.14, 8.05, 7.95, 6.91, 6.39, 7.33, 8.68, 9.04, 8.58, 8.24, 7.94, 7.94, 13.33, 13.33, 13.33, 13.33, 13.33, 13.86, 13.86, 14.3, 14.75, 14.75, 14.75, 15.12, 15.14, 15.58, 15.43, 15.43, 14.55, 14.55, 14.99, 15.46, 15.46, 15.93, 16.37, 16.22, 16.26, 16.26, 15.82, 15.38, 15.41, 15.98, 15.98, 15.98, 15.98, 15.98, 15.98, 15.98, 15.98, 15.54, 15.54, 14.65, 12.94, 10.71, 9.39, 9.39, 9.37, 9.32, 9.37, 8.49, 8.05, 7.6, 8.05, 8.05, 7.6, 7.6, 7.15, 6.71, 7.6, 7.15, 6.17, 6.36, 7.54, 9.35, 9.83, 8.9, 8.37, 7.27, 6.31, 7.4, 8.6, 9.92, 11.02, 11.62, 12.07, 12.04, 12.94, 14.28, 16.01, 15.63, 14.3, 11.6, 7.81, 6.44, 7.15, 9.75, 9.46, 9.11, 7.15, 7.74, 7.6, 7.2, 7.15, 8.05, 8.68, 9.78, 9.82, 9.82, 9.21, 9.21, 13.33, 13.33, 13.33, 13.33, 13.33, 13.86, 13.86, 14.3, 14.75, 14.75, 14.75, 15.12, 15.14, 15.58, 15.43, 15.43, 14.99, 14.55, 14.99, 15.43, 15.46, 15.46, 15.93, 16.22, 16.26, 16.26, 15.82, 15.38, 15.38, 15.53, 15.98, 15.98, 15.98, 15.98, 15.98, 15.98, 15.98, 15.98, 15.54, 15.54, 13.76, 11.15, 9.37, 9.83, 9.79, 8.77, 9.82, 10.26, 9.31, 7.58, 7.58, 8.02, 7.6, 6.71, 7.11, 6.65, 7.01, 7.15, 6.26, 6.61, 7.15, 8.94, 9.36, 8.44, 7.64, 5.7, 6.15, 7.74, 8.58, 9.64, 11.18, 12.07, 12.04, 12.27, 13.07, 14.83, 14.71, 14.21, 13.77, 12.52, 8.49, 7.6, 8.49, 8.0, 8.01, 7.01, 6.79, 7.21, 7.35, 7.89, 8.4, 9.2, 10.09, 10.35, 10.99, 10.99, 10.73, 10.73, 13.33, 13.33, 13.33, 13.33, 13.41, 13.86, 13.86, 14.3, 14.75, 14.75, 14.75, 14.69, 15.14, 15.58, 15.43, 15.43, 15.43, 14.99, 14.99, 14.99, 15.46, 15.02, 15.49, 15.78, 15.78, 16.22, 15.78, 15.38, 15.53, 15.53, 15.53, 15.53, 15.41, 15.41, 15.41, 15.54, 15.85, 15.97, 15.53, 15.53, 14.64, 12.42, 10.26, 8.47, 7.15, 9.39, 11.62, 11.98, 11.0, 9.54, 7.52, 5.81, 7.12, 6.66, 6.21, 6.94, 6.88, 6.65, 7.15, 6.26, 7.1, 8.8, 8.45, 8.24, 5.82, 5.2, 5.63, 6.87, 7.81, 9.21, 10.73, 11.62, 12.52, 13.39, 14.7, 15.24, 14.71, 13.49, 13.76, 14.3, 13.84, 8.92, 8.47, 8.43, 8.79, 10.8, 9.46, 9.89, 9.89, 9.6, 9.86, 10.68, 11.47, 11.75, 11.85, 12.25, 11.85, 11.85, 13.33, 13.33, 13.33, 13.33, 13.41, 13.86, 13.86, 14.3, 14.75, 14.75, 14.75, 14.68, 15.14, 15.39, 15.43, 15.43, 15.43, 14.99, 14.99, 14.99, 14.99, 15.02, 15.02, 15.3, 15.78, 15.78, 15.78, 15.51, 15.07, 15.08, 15.38, 15.41, 14.97, 14.97, 14.97, 14.97, 15.41, 15.41, 15.38, 15.53, 15.07, 13.29, 11.06, 9.36, 7.92, 9.49, 13.11, 13.31, 12.52, 10.73, 7.5, 4.87, 4.43, 5.36, 4.92, 6.61, 6.79, 7.21, 7.31, 6.64, 7.42, 8.33, 8.49, 7.28, 6.52, 5.69, 6.28, 7.51, 8.8, 9.74, 9.39, 10.28, 11.95, 14.22, 16.07, 15.84, 15.0, 12.56, 13.44, 15.18, 16.54, 16.52, 11.16, 10.67, 10.16, 10.5, 9.91, 11.3, 10.1, 9.74, 10.27, 11.3, 12.22, 12.72, 12.92, 12.66, 12.5, 12.5, 13.33, 13.33, 13.33, 13.33, 13.41, 13.86, 13.86, 14.3, 14.75, 14.75, 14.75, 14.68, 14.69, 14.95, 15.43, 15.43, 15.43, 15.43, 15.43, 14.95, 14.99, 14.99, 15.25, 15.3, 15.34, 15.78, 15.78, 14.86, 16.31, 14.18, 14.9, 15.34, 14.94, 14.94, 14.5, 14.97, 14.97, 15.41, 15.38, 15.38, 15.51, 14.18, 11.51, 9.72, 9.58, 10.1, 11.75, 13.38, 12.52, 9.35, 6.58, 6.16, 5.7, 5.78, 5.33, 5.36, 6.71, 7.01, 7.06, 6.57, 6.94, 7.6, 7.95, 7.53, 7.81, 7.74, 7.5, 8.94, 9.83, 10.28, 9.34, 9.64, 11.71, 14.55, 17.81, 17.81, 13.23, 11.68, 13.15, 13.78, 16.09, 16.52, 16.03, 11.12, 10.6, 10.5, 10.38, 9.51, 11.09, 10.68, 11.21, 11.8, 12.44, 12.49, 12.72, 12.72, 12.3, 12.3, 13.33, 13.33, 13.33, 13.41, 13.41, 13.86, 13.86, 14.3, 14.75, 14.75, 14.75, 14.68, 14.69, 14.69, 15.39, 15.43, 15.43, 15.39, 15.39, 14.95, 15.43, 15.43, 15.25, 14.86, 15.3, 15.34, 15.3, 14.86, 13.99, 15.68, 13.99, 14.86, 15.3, 15.3, 14.9, 14.9, 14.9, 14.9, 15.34, 15.34, 15.51, 14.6, 12.39, 10.18, 10.05, 10.96, 11.42, 12.94, 11.62, 8.49, 8.49, 8.02, 7.58, 7.13, 6.68, 6.26, 5.81, 6.26, 6.61, 5.94, 5.32, 7.6, 8.82, 7.52, 7.98, 7.98, 8.05, 8.43, 9.83, 10.28, 9.68, 9.92, 11.13, 14.3, 19.67, 20.56, 13.77, 10.58, 11.06, 12.5, 14.3, 15.63, 16.48, 16.03, 11.51, 10.6, 10.38, 9.92, 11.62, 11.37, 11.87, 12.01, 12.18, 12.66, 12.79, 12.58, 12.18, 12.18, 12.88, 12.88, 13.33, 13.41, 13.41, 13.86, 13.86, 14.3, 14.3, 14.75, 14.75, 14.68, 14.69, 14.69, 14.95, 15.43, 15.39, 14.95, 14.95, 15.39, 15.39, 15.43, 15.25, 14.86, 14.86, 15.3, 15.3, 14.86, 14.69, 14.25, 14.47, 14.42, 14.6, 15.05, 15.05, 15.05, 15.05, 15.05, 15.49, 15.49, 15.49, 15.05, 13.25, 10.62, 10.18, 11.08, 11.53, 12.42, 12.04, 9.36, 8.94, 8.94, 8.49, 8.05, 7.6, 7.15, 6.71, 6.26, 5.77, 5.31, 7.6, 7.6, 8.05, 8.05, 7.15, 7.6, 7.6, 8.05, 9.39, 9.83, 9.64, 10.84, 11.62, 12.94, 17.86, 20.95, 17.72, 13.31, 12.52, 13.41, 14.75, 16.09, 16.54, 16.52, 16.03, 11.05, 10.38, 9.91, 12.44, 12.09, 11.84, 11.84, 11.99, 12.44, 12.44, 12.35, 12.44, 12.44, 12.88, 12.88, 13.41, 13.41, 13.41, 13.41, 13.86, 14.3, 14.3, 14.75, 14.75, 14.68, 14.69, 14.69, 14.95, 15.39, 14.95, 14.9, 14.95, 15.39, 15.39, 15.43, 15.25, 15.25, 14.86, 14.86, 15.3, 14.86, 14.61, 14.69, 14.47, 14.03, 14.18, 14.16, 14.6, 15.05, 15.05, 15.05, 15.02, 15.46, 15.46, 15.02, 13.81, 11.59, 10.26, 10.63, 11.52, 11.96, 11.96, 10.26, 9.81, 9.36, 8.47, 8.47, 8.05, 7.6, 7.58, 7.13, 6.61, 5.24, 4.47, 7.6, 7.6, 8.05, 8.05, 8.05, 7.6, 8.49, 8.94, 9.33, 9.24, 11.09, 12.52, 12.96, 15.2, 17.72, 18.6, 16.76, 15.45, 15.2, 15.05, 15.95, 16.03, 15.65, 15.18, 10.6, 10.14, 12.77, 12.42, 11.96, 11.52, 11.15, 11.6, 12.05, 12.07, 12.07, 12.05, 12.05, 12.88, 12.88, 13.41, 13.41, 13.41, 13.41, 13.86, 13.86, 14.3, 14.3, 14.68, 14.68, 14.69, 14.69, 14.51, 14.95, 15.12, 15.12, 14.9, 15.39, 15.39, 15.18, 15.25, 15.25, 15.3, 14.86, 14.86, 14.86, 14.42, 14.42, 14.47, 14.47, 14.03, 13.59, 14.18, 14.18, 14.6, 15.05, 15.05, 15.15, 15.15, 15.15, 14.26, 12.03, 10.25, 10.26, 10.63, 11.51, 11.95, 11.06, 9.74, 9.74, 9.29, 8.84, 8.02, 8.03, 8.03, 7.52, 7.07, 5.7, 5.2, 4.92, 8.05, 7.15, 8.05, 8.94, 7.97, 8.43, 8.89, 8.94, 10.28, 9.79, 12.9, 13.38, 14.3, 15.18, 16.69, 17.87, 18.17, 17.88, 16.83, 14.15, 13.33, 12.96, 13.39, 13.34, 12.43, 12.05, 11.6, 11.15, 11.15, 11.15, 11.15, 11.62, 12.07, 12.07, 12.07, 12.07, 12.88, 12.88, 13.41, 13.41, 13.41, 13.41, 13.86, 13.86, 14.3, 14.3, 14.23, 14.68, 14.68, 14.69, 14.69, 15.14, 15.12, 15.12, 14.9, 15.39, 15.39, 15.18, 15.25, 15.25, 14.81, 14.81, 14.81, 14.81, 14.42, 14.42, 14.42, 14.42, 13.99, 13.55, 13.55, 13.74, 14.18, 14.6, 14.6, 15.05, 15.02, 15.15, 13.8, 11.62, 8.94, 9.36, 10.18, 11.06, 11.49, 11.49, 10.6, 10.16, 9.72, 9.28, 8.39, 7.97, 7.97, 7.97, 6.94, 6.14, 5.24, 4.87, 8.05, 7.15, 8.05, 8.94, 8.05, 8.49, 8.94, 8.94, 8.94, 9.79, 12.0, 14.11, 14.28, 14.3, 14.3, 16.54, 18.78, 18.78, 16.99, 12.96, 12.07, 12.07, 12.5, 12.94, 12.94, 11.15, 11.15, 11.15, 11.15, 11.18, 11.18, 11.62, 12.07, 12.07, 12.07, 12.07, 12.88, 12.88, 12.96, 13.41, 13.41, 13.41, 13.86, 13.86, 14.3, 14.3, 14.23, 14.23, 14.23, 14.25, 14.69, 15.12, 15.12, 15.12, 14.9, 15.39, 15.39, 15.18, 15.25, 15.25, 15.25, 14.81, 14.81, 14.81, 14.37, 14.42, 13.99, 13.99, 13.99, 13.55, 13.55, 13.55, 13.72, 14.16, 14.6, 14.6, 14.6, 14.99, 13.36, 10.66, 8.49, 10.26, 10.93, 11.33, 11.71, 11.71, 11.28, 10.84, 10.45, 9.15, 8.28, 7.84, 8.3, 8.3, 7.4, 6.47, 5.09, 4.73, 8.05, 7.15, 7.6, 8.94, 8.49, 7.6, 8.49, 8.49, 8.49, 9.83, 11.55, 13.75, 15.56, 14.73, 14.28, 15.91, 18.2, 18.31, 15.63, 13.78, 12.89, 12.94, 12.96, 12.96, 12.96, 11.62, 11.62, 11.62, 11.62, 11.18, 11.18, 11.62, 12.07, 12.07, 12.07, 12.07, 12.88, 12.88, 12.96, 13.41, 13.41, 13.41, 13.41, 13.86, 14.3, 14.3, 14.23, 14.23, 14.23, 14.23, 14.68, 14.68, 15.12, 15.11, 14.9, 14.95, 15.09, 15.18, 15.18, 14.81, 14.81, 14.37, 14.37, 14.37, 14.37, 14.42, 13.99, 13.99, 13.94, 13.5, 13.5, 13.7, 13.72, 13.72, 14.16, 13.99, 14.37, 14.55, 13.19, 10.35, 9.64, 11.53, 13.15, 12.72, 12.42, 12.42, 12.08, 11.64, 10.78, 9.97, 8.28, 7.84, 8.12, 8.3, 7.4, 6.51, 5.57, 4.6, 5.16, 7.89, 8.05, 7.89, 7.52, 7.98, 8.05, 8.49, 8.49, 8.94, 11.18, 12.9, 14.31, 14.64, 15.12, 15.63, 15.91, 15.18, 13.86, 13.39, 13.39, 12.96, 12.96, 12.52, 12.52, 12.07, 11.62, 11.62, 11.62, 11.18, 11.15, 11.6, 12.04, 12.04, 11.6, 12.07, 12.96, 12.96, 12.96, 12.96, 13.41, 13.41, 13.41, 13.86, 13.86, 14.3, 14.23, 14.23, 14.23, 14.23, 14.68, 14.68, 15.11, 15.11, 14.9, 14.95, 14.66, 14.75, 15.18, 15.18, 14.81, 14.37, 14.37, 14.37, 14.37, 14.37, 13.94, 13.5, 13.5, 13.5, 13.5, 13.5, 13.5, 13.5, 13.55, 13.55, 13.94, 14.31, 13.37, 10.92, 9.9, 12.3, 13.75, 13.7, 13.44, 13.01, 13.09, 12.22, 11.4, 10.35, 8.63, 7.81, 8.06, 8.12, 7.69, 6.79, 5.81, 4.4, 7.06, 7.37, 7.89, 8.05, 7.52, 8.49, 7.6, 8.49, 8.49, 8.94, 10.28, 11.18, 11.78, 13.99, 16.27, 16.92, 14.3, 11.15, 11.62, 12.05, 12.05, 12.5, 12.07, 11.62, 11.62, 11.62, 11.62, 11.18, 11.18, 11.18, 11.15, 11.6, 11.6, 11.6, 11.6, 11.6, 12.96, 12.96, 12.96, 12.96, 12.96, 13.41, 13.41, 13.86, 13.86, 13.86, 13.79, 14.23, 14.23, 14.23, 14.23, 14.66, 14.66, 15.11, 14.47, 14.95, 14.66, 14.75, 14.75, 14.75, 14.81, 14.37, 14.37, 14.37, 14.37, 14.37, 13.94, 13.5, 13.5, 13.5, 13.07, 13.5, 13.5, 13.5, 13.5, 13.5, 13.94, 13.57, 13.15, 11.14, 10.55, 11.5, 13.94, 13.8, 12.88, 12.88, 12.88, 12.0, 11.11, 9.6, 8.33, 7.76, 8.06, 8.12, 7.69, 7.26, 6.1, 5.08, 4.6, 7.89, 7.89, 8.05, 8.49, 8.05, 7.15, 7.98, 8.44, 8.49, 10.28, 9.39, 11.18, 12.96, 15.31, 18.65, 16.05, 11.84, 10.6, 11.08, 11.99, 12.88, 12.88, 12.49, 11.6, 11.15, 11.15, 11.18, 11.18, 11.18, 11.18, 11.15, 11.6, 11.6, 11.6, 11.6, 12.96, 12.96, 12.96, 12.96, 12.96, 13.41, 13.41, 13.41, 13.86, 13.79, 13.79, 13.79, 14.23, 14.23, 14.22, 14.66, 14.66, 14.4, 14.47, 14.95, 14.66, 14.75, 14.75, 14.75, 14.31, 13.94, 14.37, 14.37, 14.37, 14.31, 13.88, 13.44, 13.5, 13.07, 13.07, 13.07, 13.5, 13.5, 13.25, 13.25, 13.67, 13.57, 13.15, 11.55, 11.27, 11.68, 13.07, 12.79, 12.03, 11.58, 11.13, 11.13, 10.24, 8.9, 8.33, 7.92, 7.76, 7.63, 7.63, 7.01, 6.51, 5.6, 4.8, 7.06, 7.6, 8.05, 8.33, 8.49, 7.08, 7.81, 8.0, 8.49, 8.9, 9.79, 10.68, 11.14, 13.38, 16.76, 18.32, 15.9, 14.47, 14.64, 14.57, 14.23, 13.84, 13.39, 12.5, 12.52, 12.52, 12.07, 12.07, 11.62, 11.62, 12.04, 12.04, 11.6, 11.6, 11.6, 12.44, 12.44, 12.96, 12.96, 12.96, 12.96, 13.41, 13.41, 13.41, 13.79, 13.79, 13.79, 14.23, 14.22, 14.22, 14.66, 14.66, 14.4, 14.47, 14.51, 14.66, 14.66, 14.75, 14.75, 14.75, 14.31, 14.31, 14.31, 14.31, 14.31, 14.11, 14.11, 13.44, 13.44, 13.01, 13.07, 13.07, 13.25, 13.25, 13.25, 13.57, 13.57, 13.15, 12.3, 11.14, 11.45, 11.87, 12.14, 11.46, 10.6, 9.81, 9.36, 8.47, 8.38, 8.38, 7.92, 7.48, 7.33, 7.21, 7.21, 6.51, 6.0, 4.93, 5.02, 8.05, 8.05, 8.33, 7.21, 7.31, 7.31, 8.49, 8.05, 8.89, 9.79, 10.24, 10.73, 11.59, 13.92, 16.54, 16.63, 15.72, 17.59, 19.17, 17.7, 13.86, 12.96, 12.96, 12.94, 12.94, 12.42, 12.92, 11.06, 11.51, 11.96, 11.52, 11.52, 11.52, 11.52, 12.44, 12.44, 12.52, 12.96, 12.96, 12.96, 13.41, 13.41, 13.41, 13.79, 13.79, 13.79, 14.22, 14.22, 14.22, 14.66, 14.4, 14.47, 14.47, 14.47, 14.23, 14.23, 14.75, 14.75, 14.31, 14.31, 14.31, 14.31, 14.31, 14.31, 13.88, 13.88, 13.44, 13.44, 13.07, 13.07, 13.07, 13.25, 13.25, 13.25, 13.15, 13.57, 13.15, 12.72, 11.87, 11.45, 11.76, 12.14, 11.71, 10.89, 10.02, 8.71, 7.97, 7.95, 7.95, 7.94, 7.92, 7.33, 6.9, 6.72, 6.23, 6.13, 5.2, 5.02, 5.32, 8.49, 8.49, 7.6, 7.6, 7.6, 7.98, 8.43, 8.44, 9.34, 9.83, 10.28, 11.14, 12.41, 13.72, 13.99, 15.12, 17.27, 19.15, 17.68, 15.45, 14.3, 12.94, 12.79, 12.74, 13.01, 11.64, 10.49, 10.93, 11.36, 11.36, 10.93, 10.93, 10.93, 12.44, 12.44, 12.52, 12.96, 12.96, 12.96, 12.96, 13.41, 13.41, 13.79, 13.79, 13.77, 13.77, 14.22, 14.22, 13.96, 13.96, 14.03, 14.03, 14.03, 14.23, 14.23, 14.23, 14.75, 14.75, 14.31, 13.88, 14.31, 14.31, 14.31, 14.31, 13.88, 13.88, 13.5, 13.07, 13.07, 12.82, 12.82, 13.25, 13.15, 13.15, 13.15, 13.15, 12.6, 12.18, 11.34, 11.76, 11.76, 11.76, 11.28, 10.45, 9.15, 8.71, 7.84, 7.84, 7.84, 7.37, 7.37, 6.94, 6.47, 5.94, 5.86, 5.34, 5.51, 5.31, 8.49, 8.05, 8.05, 7.89, 7.98, 8.43, 8.43, 8.49, 9.39, 9.39, 9.79, 10.69, 11.49, 12.04, 11.75, 12.86, 16.55, 18.86, 17.59, 16.38, 15.03, 12.94, 12.62, 12.3, 11.37, 10.95, 10.43, 10.68, 10.32, 10.32, 10.1, 10.1, 10.1, 12.44, 12.44, 12.52, 12.52, 12.96, 12.96, 12.96, 13.41, 13.41, 13.34, 13.77, 13.77, 13.77, 14.22, 14.22, 13.96, 13.96, 14.03, 14.03, 14.03, 14.47, 14.23, 14.66, 14.66, 14.75, 14.31, 13.88, 13.44, 13.88, 13.88, 14.31, 14.31, 13.88, 13.5, 12.82, 12.82, 12.82, 12.72, 12.72, 12.72, 12.72, 13.02, 13.02, 12.6, 12.18, 11.62, 12.04, 11.76, 11.76, 11.03, 10.18, 9.83, 8.97, 8.55, 7.69, 7.69, 7.26, 7.21, 6.79, 6.47, 6.11, 6.02, 5.94, 5.4, 5.26, 8.05, 7.89, 7.89, 7.89, 7.98, 8.94, 8.49, 8.94, 9.39, 9.39, 9.83, 10.24, 10.58, 10.6, 10.85, 12.04, 14.17, 16.55, 17.29, 18.0, 16.87, 13.39, 11.86, 10.8, 10.48, 10.04, 10.0, 9.6, 9.49, 9.74, 10.01, 10.01, 10.01, 12.44, 12.44, 12.52, 12.52, 12.52, 12.96, 12.96, 13.41, 13.41, 13.33, 13.77, 13.77, 13.77, 14.22, 13.96, 13.96, 14.03, 14.03, 14.03, 14.03, 14.03, 14.23, 14.23, 14.23, 14.23, 14.23, 13.8, 13.37, 13.44, 13.44, 13.44, 13.88, 13.88, 13.15, 12.82, 12.82, 12.72, 12.72, 12.72, 12.72, 12.6, 12.6, 13.02, 12.45, 12.04, 11.62, 12.04, 12.04, 11.34, 10.92, 10.18, 9.83, 9.4, 8.97, 7.69, 7.51, 7.51, 7.69, 7.21, 6.47, 6.55, 6.51, 5.94, 5.64, 5.2, 6.94, 7.5, 7.97, 8.05, 7.98, 8.89, 9.33, 9.39, 9.39, 9.39, 9.39, 9.34, 9.64, 9.92, 10.6, 11.61, 12.3, 13.75, 15.99, 18.26, 18.51, 12.07, 10.25, 10.0, 9.3, 8.94, 8.38, 8.03, 8.67, 8.88, 9.2, 9.2, 9.2, 12.44, 12.0, 12.52, 12.52, 12.52, 12.96, 12.96, 12.96, 13.33, 13.33, 13.77, 13.75, 14.22, 14.22, 13.53, 13.53, 13.59, 13.59, 13.59, 14.03, 13.7, 14.23, 14.23, 14.23, 14.23, 14.23, 13.8, 13.8, 13.37, 13.01, 13.01, 13.01, 13.15, 13.15, 12.72, 12.3, 12.3, 12.3, 12.3, 12.18, 12.6, 12.6, 12.45, 12.45, 12.04, 11.85, 12.04, 11.62, 11.21, 10.92, 10.18, 9.75, 9.4, 8.34, 7.93, 7.93, 7.51, 7.43, 7.21, 6.47, 6.36, 6.51, 5.94, 5.2, 5.09, 6.36, 7.01, 7.5, 7.52, 7.98, 8.29, 8.73, 9.16, 9.33, 9.39, 8.94, 9.33, 9.33, 9.64, 10.35, 11.33, 11.76, 11.87, 14.42, 17.91, 16.48, 13.41, 10.26, 9.49, 8.43, 7.97, 6.92, 7.59, 8.3, 8.32, 8.3, 8.3, 8.3, 12.0, 12.07, 12.07, 12.52, 12.52, 12.52, 12.96, 12.96, 13.33, 13.33, 13.75, 13.75, 14.22, 14.22, 13.53, 13.15, 13.15, 13.59, 14.03, 14.03, 14.03, 13.7, 14.23, 14.23, 14.23, 14.23, 13.8, 13.8, 13.37, 13.44, 12.72, 12.72, 12.72, 12.72, 12.3, 12.3, 12.3, 12.3, 12.3, 12.18, 12.18, 12.18, 12.45, 12.45, 11.85, 11.85, 11.44, 11.62, 11.21, 10.92, 10.08, 9.33, 9.33, 8.76, 8.34, 7.51, 7.51, 7.01, 7.14, 6.72, 6.42, 6.36, 6.16, 5.81, 5.51, 4.92, 6.51, 6.23, 6.36, 6.4, 7.31, 8.24, 8.79, 8.4, 9.16, 9.33, 8.94, 8.94, 9.34, 10.24, 11.14, 11.05, 11.95, 13.84, 19.67, 17.43, 14.3, 11.62, 9.36, 8.63, 8.21, 6.53, 5.64, 6.88, 6.95, 7.02, 7.02, 7.02, 12.07, 12.07, 12.07, 12.07, 12.52, 12.52, 12.52, 12.96, 12.88, 13.31, 13.75, 13.77, 14.22, 13.77, 13.09, 13.15, 13.59, 13.59, 14.03, 14.03, 14.03, 13.7, 14.13, 14.13, 14.23, 13.8, 13.8, 13.37, 13.02, 13.02, 12.72, 12.72, 12.72, 12.72, 12.3, 12.3, 12.3, 11.76, 11.39, 11.8, 11.8, 12.04, 12.04, 12.04, 11.85, 11.85, 11.44, 11.44, 11.21, 10.79, 10.08, 9.75, 9.49, 8.67, 8.25, 7.84, 7.43, 7.01, 6.72, 6.72, 6.23, 6.13, 6.28, 5.75, 4.11, 4.4, 5.95, 5.75, 5.75, 6.79, 6.8, 6.99, 7.6, 7.28, 8.8, 8.79, 8.87, 8.94, 9.39, 9.83, 10.73, 10.73, 11.62, 17.88, 19.67, 18.33, 15.2, 13.41, 11.6, 10.19, 8.82, 7.07, 4.74, 4.96, 5.49, 6.32, 6.32, 6.32, 12.07, 12.07, 12.07, 12.07, 12.52, 12.52, 12.52, 12.88, 12.88, 13.31, 13.75, 13.77, 13.77, 13.77, 13.15, 13.15, 13.59, 13.59, 13.59, 14.03, 14.03, 13.7, 14.13, 14.13, 14.13, 13.7, 13.8, 13.02, 13.02, 12.6, 12.6, 12.72, 12.72, 12.72, 12.3, 11.55, 11.39, 11.39, 11.39, 11.39, 11.6, 11.6, 12.04, 12.04, 11.85, 11.85, 11.44, 11.44, 10.8, 10.4, 9.77, 9.36, 9.08, 8.67, 8.25, 7.84, 7.84, 7.33, 6.92, 6.51, 6.1, 6.23, 6.13, 5.58, 5.21, 3.79, 4.09, 4.4, 6.64, 6.79, 6.99, 6.99, 6.99, 6.8, 5.95, 7.28, 8.37, 8.73, 9.21, 9.64, 9.79, 10.28, 13.86, 17.43, 19.67, 17.88, 15.18, 13.78, 12.44, 11.42, 10.52, 8.48, 6.18, 3.8, 3.91, 4.83, 4.83, 4.83, 12.07, 12.07, 12.07, 12.07, 12.07, 12.52, 12.52, 12.88, 12.86, 13.31, 13.33, 13.33, 13.33, 13.33, 12.71, 13.15, 13.59, 13.59, 13.59, 14.03, 14.03, 13.7, 13.7, 13.7, 13.7, 13.7, 12.87, 13.02, 13.02, 12.6, 12.18, 12.6, 12.6, 12.38, 11.97, 11.39, 11.39, 11.39, 10.8, 11.2, 11.2, 11.2, 12.04, 11.85, 11.85, 10.94, 10.94, 10.94, 11.2, 10.4, 9.6, 9.36, 9.08, 8.67, 8.25, 7.73, 7.73, 7.33, 6.92, 6.92, 6.51, 6.4, 6.0, 5.69, 5.24, 4.43, 4.84, 5.2, 6.64, 7.21, 6.99, 7.74, 8.17, 8.41, 8.41, 7.81, 6.91, 8.0, 8.91, 8.99, 9.21, 9.68, 12.52, 16.01, 18.7, 17.41, 13.86, 11.96, 10.8, 10.1, 10.38, 9.6, 6.44, 3.99, 3.8, 4.42, 4.42, 4.42, 11.62, 11.62, 12.07, 12.07, 12.07, 12.07, 12.44, 12.86, 12.42, 12.86, 12.86, 12.88, 12.88, 12.9, 12.71, 13.15, 13.59, 13.59, 13.59, 13.59, 13.7, 13.7, 13.7, 13.7, 13.7, 13.28, 12.87, 13.02, 12.6, 12.6, 12.18, 12.6, 12.21, 12.21, 11.8, 11.39, 11.39, 11.2, 10.8, 10.8, 11.2, 11.44, 11.44, 11.44, 11.44, 10.94, 10.94, 10.94, 11.2, 10.4, 9.6, 9.36, 9.08, 8.67, 8.14, 7.73, 7.73, 7.33, 6.92, 6.67, 6.67, 6.28, 5.75, 5.95, 5.82, 4.89, 4.11, 4.98, 4.54, 6.8, 7.2, 7.74, 8.17, 8.43, 8.94, 8.89, 8.48, 8.17, 8.58, 8.72, 8.99, 10.12, 11.18, 13.84, 16.91, 16.9, 13.84, 11.6, 9.15, 8.24, 8.55, 8.76, 7.32, 4.94, 3.14, 4.0, 4.0, 4.0, 11.62, 11.62, 11.62, 12.07, 11.62, 12.07, 11.98, 12.42, 12.42, 12.42, 12.88, 12.88, 12.88, 12.9, 12.9, 13.15, 13.59, 13.59, 13.59, 13.59, 13.27, 13.7, 13.7, 13.7, 13.7, 12.87, 12.87, 12.45, 12.6, 12.6, 12.18, 12.6, 12.21, 11.8, 11.8, 11.39, 11.2, 10.8, 10.8, 10.8, 10.94, 11.44, 11.44, 11.44, 11.44, 10.94, 10.94, 10.94, 10.94, 10.4, 9.6, 9.36, 9.08, 8.82, 8.55, 8.14, 7.73, 7.46, 7.06, 6.67, 6.67, 6.28, 6.13, 6.13, 5.72, 5.15, 4.43, 4.11, 3.72, 5.93, 6.28, 6.7, 6.99, 7.74, 7.74, 8.24, 8.48, 8.17, 8.72, 8.72, 8.99, 9.68, 10.58, 12.49, 15.2, 16.52, 14.23, 12.52, 9.36, 7.06, 6.06, 6.98, 6.98, 5.82, 3.14, 2.83, 2.83, 2.83, 11.62, 11.62, 11.62, 11.62, 11.62, 12.0, 11.98, 11.98, 11.98, 12.42, 12.44, 12.88, 12.9, 12.9, 12.9, 13.15, 13.15, 13.59, 13.59, 13.59, 13.27, 13.57, 13.57, 13.7, 12.87, 12.87, 12.87, 12.45, 12.45, 12.04, 12.18, 12.21, 12.21, 11.8, 11.39, 11.2, 10.8, 10.8, 10.55, 10.55, 11.44, 11.44, 11.44, 11.03, 10.55, 10.55, 10.94, 10.94, 10.94, 10.4, 9.6, 9.36, 8.95, 8.95, 8.55, 8.14, 7.46, 7.06, 7.06, 6.67, 6.28, 6.13, 5.86, 6.23, 6.32, 5.43, 4.43, 4.43, 3.64, 4.46, 5.15, 5.37, 5.49, 6.32, 6.99, 7.6, 8.0, 8.17, 8.21, 8.72, 8.99, 9.49, 10.41, 11.96, 14.66, 16.09, 14.75, 12.96, 11.18, 7.6, 7.81, 5.82, 5.36, 4.44, 1.26, 2.17, 2.17, 2.17, 11.18, 11.18, 11.18, 11.62, 11.55, 11.53, 11.53, 11.98, 11.98, 12.42, 12.44, 12.88, 12.9, 12.9, 12.9, 13.09, 13.53, 13.09, 13.53, 13.53, 13.15, 13.57, 13.57, 13.57, 12.87, 12.87, 12.45, 12.45, 12.45, 12.04, 12.04, 11.99, 12.21, 11.8, 11.2, 11.2, 10.8, 10.55, 10.55, 10.55, 11.03, 11.03, 11.03, 11.03, 10.55, 10.55, 10.55, 10.55, 10.55, 9.77, 9.6, 9.36, 9.36, 8.95, 8.55, 8.24, 7.85, 7.06, 7.06, 6.41, 6.23, 6.23, 6.23, 6.23, 6.32, 5.72, 5.09, 4.74, 4.29, 4.39, 4.75, 6.01, 5.84, 6.32, 6.99, 7.6, 8.0, 8.17, 8.58, 8.58, 8.99, 9.49, 10.45, 11.84, 14.09, 16.45, 15.18, 13.86, 12.07, 9.39, 8.49, 8.82, 7.44, 4.2, 0.0, 0.0, 0.0, 0.0, 11.18, 11.18, 11.18, 11.18, 11.09, 11.62, 11.53, 11.98, 11.98, 12.42, 12.44, 12.44, 12.9, 12.88, 12.88, 13.09, 13.09, 13.09, 13.09, 13.53, 13.15, 13.15, 13.57, 13.57, 12.66, 12.45, 12.45, 12.45, 12.04, 12.04, 11.6, 11.99, 11.99, 11.6, 11.2, 11.2, 10.8, 10.55, 10.55, 10.55, 10.55, 10.55, 10.55, 10.55, 10.16, 10.16, 10.16, 10.04, 9.67, 9.38, 9.6, 9.36, 9.36, 9.36, 8.63, 8.24, 7.85, 7.17, 7.17, 6.79, 6.23, 6.23, 6.23, 6.35, 6.7, 6.08, 5.38, 5.06, 4.71, 5.05, 5.37, 6.79, 6.99, 7.89, 6.88, 7.81, 8.73, 8.91, 8.99, 9.13, 9.13, 9.66, 10.25, 11.18, 13.49, 15.87, 15.12, 13.86, 12.07, 10.73, 8.94, 8.94, 9.39, 6.32, 4.0, 2.69, 2.69, 2.69, 11.18, 11.18, 11.18, 11.09, 11.09, 11.62, 11.53, 11.98, 11.98, 12.42, 12.44, 12.44, 12.88, 12.88, 12.88, 13.09, 13.09, 13.09, 13.09, 13.53, 13.15, 13.15, 13.15, 13.15, 12.66, 12.25, 12.45, 12.45, 12.04, 11.6, 11.6, 11.99, 11.6, 11.2, 11.2, 11.2, 10.55, 10.55, 10.16, 10.16, 10.24, 10.24, 9.86, 9.86, 9.48, 9.77, 9.3, 9.3, 9.3, 8.93, 8.82, 8.82, 9.03, 9.03, 8.63, 8.63, 7.92, 7.54, 7.17, 6.59, 6.59, 6.59, 6.59, 6.7, 6.7, 6.08, 5.38, 5.37, 5.37, 5.05, 5.37, 5.35, 5.86, 8.77, 7.06, 7.52, 8.24, 8.91, 8.99, 9.13, 9.66, 9.9, 10.43, 10.95, 12.58, 14.97, 14.66, 13.39, 12.07, 10.73, 9.39, 8.94, 8.94, 8.49, 7.6, 6.01, 6.01, 6.01, 11.18, 11.18, 11.18, 11.09, 11.09, 11.62, 11.53, 11.98, 11.98, 12.42, 12.44, 12.44, 12.88, 12.88, 12.88, 13.09, 13.09, 13.09, 13.09, 13.53, 13.15, 13.15, 13.15, 13.15, 12.66, 12.25, 12.45, 12.45, 12.04, 11.6, 11.6, 11.99, 11.6, 11.2, 11.2, 11.2, 10.55, 10.55, 10.16, 10.16, 10.24, 10.24, 9.86, 9.86, 9.48, 9.77, 9.3, 9.3, 9.3, 8.93, 8.82, 8.82, 9.03, 9.03, 8.63, 8.63, 7.92, 7.54, 7.17, 6.59, 6.59, 6.59, 6.59, 6.7, 6.7, 6.08, 5.38, 5.37, 5.37, 5.05, 5.37, 5.35, 5.86, 8.77, 7.06, 7.52, 8.73, 8.91, 8.99, 9.13, 9.66, 9.9, 9.9, 10.95, 11.66, 13.18, 14.21, 13.41, 12.07, 11.18, 10.28, 9.39, 8.94, 8.67, 6.32, 6.32, 6.32, 6.32]}, {"header": {"dx": 0.06612293990616946, "dy": 0.0552356325346848, "nx": 98, "ny": 59, "la1": 35.046912555036876, "la2": 31.78801023549047, "lo1": -121.43107172385933, "lo2": -114.95102361305473, "refTime": "2026041001", "parameterCategory": 1, "parameterNumber": 3}, "data": [4.38, 2.28, 2.28, 2.35, 0.0, 0.0, 0.0, 0.0, 0.0, 0.0, 0.0, 0.0, 0.0, 0.0, 0.0, 0.0, 0.0, 0.0, 0.0, 0.0, 1.54, 2.58, 2.44, 2.57, 1.68, 1.68, 1.54, 1.54, 0.78, 0.0, 0.0, -0.85, -1.98, -4.74, -1.98, -3.47, -5.95, -5.37, -4.56, -4.14, -3.35, -3.87, -3.68, -5.11, -5.02, -4.81, -3.92, -4.32, -2.72, -1.37, 0.0, 1.09, 3.18, 4.99, 6.72, 7.19, 7.63, 7.25, 7.49, 6.52, 6.52, 5.86, 5.67, 5.67, 4.98, 4.98, 4.87, 4.0, 4.0, 3.25, 3.23, 3.11, 4.06, 4.75, 5.06, 5.06, 4.58, 3.68, 3.44, 2.34, 1.56, 0.75, 0.0, 0.0, -0.77, -1.44, -1.58, -1.75, -1.75, -1.75, -1.09, -1.33, 0.0, 0.0, 0.0, 0.0, 1.76, 4.6, 4.38, 2.28, 2.28, 2.28, 2.35, 0.0, 0.0, 0.0, 0.0, 0.0, 0.0, 0.0, 0.0, 0.0, 0.0, 0.0, 0.0, 0.0, 0.0, 0.0, 0.0, 1.69, 2.97, 2.46, 2.69, 1.75, 1.68, 1.68, 0.85, 0.81, 0.0, -0.84, -2.32, -4.43, -3.47, -3.2, -4.83, -6.79, -6.01, -6.32, -5.46, -5.98, -7.19, -6.4, -6.84, -7.05, -6.22, -4.45, -1.5, 0.0, 3.34, 5.0, 6.67, 6.97, 7.63, 8.18, 7.49, 7.49, 6.52, 5.86, 5.86, 4.98, 4.81, 4.81, 4.81, 4.24, 4.0, 3.25, 3.25, 3.14, 3.96, 4.75, 5.72, 5.72, 5.4, 4.75, 3.91, 3.68, 3.44, 2.34, 1.56, 0.75, 0.0, 0.0, -0.77, -1.44, -1.58, -1.75, -1.75, -1.75, -1.09, -1.33, 0.0, 0.0, 0.0, 0.0, 1.76, 4.6, 4.38, 2.28, 2.28, 2.28, 2.35, 0.0, 0.0, 0.0, 0.0, 0.0, 0.0, 0.0, 0.0, 0.0, -1.52, -1.52, -1.39, -1.44, 0.0, 0.0, 0.0, 0.0, 1.84, 3.25, 2.58, 2.44, 2.57, 1.6, 0.81, 0.0, 0.0, -1.65, -3.68, -5.37, -4.74, -4.71, -5.1, -6.32, -7.68, -7.9, -8.82, -9.13, -9.88, -10.25, -9.42, -8.14, -5.18, 0.0, 5.02, 5.95, 6.7, 7.36, 8.01, 8.3, 7.54, 7.63, 6.65, 6.88, 5.86, 5.86, 4.98, 4.98, 4.81, 4.81, 4.1, 3.14, 3.25, 3.25, 3.34, 5.11, 5.93, 6.79, 5.6, 5.4, 4.06, 3.19, 2.44, 3.81, 2.72, 1.64, 0.79, 0.0, 0.0, 0.0, -0.71, -1.44, -2.18, -2.54, -2.83, -2.39, -3.04, -1.61, 0.0, 0.0, 3.82, 5.0, 5.86, 5.59, 3.81, 4.38, 2.35, 2.28, 2.35, 0.0, 0.0, 0.0, 0.0, 0.0, 0.0, 0.0, 0.0, 0.0, -1.58, -1.39, -2.82, -2.93, -2.82, -1.28, 0.0, 0.0, 0.0, 1.28, 2.1, 2.39, 2.44, 1.75, 0.89, 0.0, 0.0, -2.17, -5.59, -7.07, -7.07, -6.64, -6.95, -7.9, -9.67, -10.91, -12.22, -14.13, -11.8, -10.17, -7.8, -3.59, 1.61, 6.5, 6.95, 8.22, 8.46, 8.59, 8.05, 7.78, 7.78, 6.79, 6.65, 6.65, 5.86, 5.86, 4.98, 4.81, 3.96, 4.1, 3.34, 2.54, 2.54, 4.81, 6.43, 8.01, 8.45, 7.49, 6.2, 4.48, 2.88, 1.64, 0.83, 0.96, 1.11, 0.0, 0.0, 0.0, 0.0, -0.81, -0.85, -1.58, -2.83, -2.83, -3.35, -3.44, 0.0, 0.0, 4.48, 7.26, 6.64, 6.64, 6.32, 6.01, 3.81, 1.96, 2.02, 2.35, 2.35, 0.0, 0.0, 0.0, 0.0, 0.0, 0.0, 0.0, 0.0, -2.19, -1.52, -1.64, -2.82, -2.93, -2.93, -2.93, -2.06, 0.0, 0.0, 0.0, 1.39, 1.84, 3.11, 2.97, 1.84, 1.2, 1.26, 0.0, -3.19, -6.45, -6.71, -7.9, -8.22, -10.37, -13.58, -15.91, -15.64, -12.33, -8.83, -4.87, 0.0, 5.99, 8.41, 7.97, 8.53, 8.72, 8.21, 7.78, 7.78, 7.78, 7.38, 7.03, 6.65, 5.67, 5.86, 4.71, 4.81, 4.1, 3.96, 3.23, 2.45, 3.44, 5.8, 8.21, 9.89, 9.8, 8.84, 7.82, 7.0, 4.81, 2.34, 0.73, 0.0, 0.0, 0.0, 0.0, 0.0, -0.78, -0.78, -1.6, -1.58, -1.75, -2.33, -1.4, 0.0, 2.81, 8.31, 8.53, 8.73, 8.0, 8.15, 7.81, 6.63, 6.32, 3.81, 1.96, 2.02, 2.02, 0.0, 0.0, 0.0, 0.0, 0.0, 0.0, 0.0, 0.0, 0.0, -2.1, -1.84, -3.07, -2.82, -2.93, -4.24, -4.39, -4.39, -2.93, -2.54, 0.0, 0.0, 2.37, 2.37, 4.15, 4.8, 5.52, 4.66, 4.88, 2.49, -1.33, -4.24, -5.8, -6.43, -8.66, -16.19, -17.97, -12.87, -4.52, 0.0, 4.65, 8.85, 9.53, 9.0, 9.26, 8.85, 7.64, 7.64, 7.93, 7.51, 7.78, 7.03, 6.65, 5.8, 5.67, 4.71, 4.71, 3.96, 4.06, 3.32, 2.53, 3.68, 6.96, 9.3, 10.01, 9.89, 9.24, 8.57, 7.59, 7.36, 6.14, 3.07, 0.82, 0.0, 0.0, 0.0, 0.0, 0.0, -0.81, -0.77, -0.8, -0.89, 0.0, 1.84, 7.51, 11.44, 11.88, 11.2, 11.09, 7.74, 8.06, 8.4, 6.98, 6.01, 7.59, 3.81, 1.96, 1.96, 2.02, 0.0, 0.0, 0.0, 0.0, 0.0, 0.0, 0.0, 0.0, 0.0, -1.69, -4.32, -4.4, -4.24, -4.39, -4.39, -5.08, -5.27, -4.52, -3.2, -2.15, 0.0, 0.0, 0.0, 2.81, 4.98, 7.15, 5.95, 4.2, 3.45, 1.14, 0.0, 0.0, 0.0, 0.0, 0.0, -13.41, -14.3, 12.96, 13.41, 12.45, 11.53, 10.56, 10.01, 9.56, 8.85, 8.24, 8.24, 7.64, 7.78, 6.79, 5.8, 5.8, 5.11, 4.21, 4.1, 3.96, 3.32, 3.42, 2.44, 3.82, 8.32, 10.37, 10.28, 9.62, 9.17, 8.45, 7.74, 6.05, 5.45, 4.29, 3.05, 2.21, 0.82, 0.0, 0.0, 0.0, 0.0, -0.77, -0.93, -1.14, 0.0, 1.84, 9.66, 13.59, 13.57, 12.72, 11.71, 11.53, 7.97, 8.33, 7.89, 6.79, 6.95, 8.94, 3.68, 1.96, 2.02, 2.09, 0.0, 0.0, 0.0, 0.0, 0.0, -2.54, -2.6, -2.97, -2.49, -4.15, -4.65, -5.54, -5.4, -5.27, -4.81, -4.1, -4.24, -3.85, -3.85, -4.5, -3.39, 0.0, 0.0, 0.0, 5.48, 4.98, 3.82, 1.98, 2.45, 2.45, 3.92, 5.08, 5.27, 3.39, 1.93, 0.0, 9.17, 13.44, 16.09, 17.1, 14.39, 11.64, 10.12, 9.17, 9.17, 8.91, 7.36, 6.7, 6.56, 5.93, 5.6, 4.93, 4.06, 3.32, 2.44, 2.61, 2.51, 2.6, 3.82, 8.69, 10.63, 11.28, 10.24, 8.12, 7.64, 6.79, 6.0, 4.38, 3.47, 2.64, 1.89, 1.89, 1.06, 0.0, 0.0, 0.0, 0.0, 0.0, -0.89, 0.0, 0.0, 4.81, 12.14, 13.41, 13.15, 12.35, 10.28, 7.15, 7.6, 8.05, 7.2, 6.44, 7.87, 8.23, 1.72, 1.77, 2.02, 0.0, 0.0, 0.0, 0.0, 0.0, -2.35, -2.06, -4.8, -7.27, -7.19, -6.67, -5.6, -6.94, -7.54, -6.87, -7.11, -5.8, -6.0, -6.0, -5.45, -5.31, -3.6, -3.19, -1.39, 0.0, 0.0, 0.0, 0.0, 0.0, 0.0, 6.2, 8.53, 6.97, 4.23, 1.76, 1.69, 3.98, 11.2, 14.03, 14.03, 12.04, 10.35, 9.3, 10.3, 9.48, 8.59, 8.18, 7.95, 6.7, 5.72, 5.72, 5.06, 4.87, 4.47, 3.53, 2.71, 3.06, 2.0, 3.08, 7.59, 10.55, 11.83, 11.28, 9.89, 8.01, 6.45, 5.86, 4.36, 3.07, 1.83, 1.63, 0.84, 0.0, 0.0, 0.0, -1.15, -1.27, -1.3, -0.74, -0.71, -0.81, 0.0, 5.2, 11.84, 11.84, 11.4, 10.28, 7.08, 6.36, 7.01, 7.6, 7.81, 7.07, 8.18, 8.8, 1.77, 1.77, 2.09, 0.0, 0.0, 0.0, 0.0, 0.0, -2.35, -2.06, -3.68, -7.54, -7.73, -8.05, -6.88, -6.65, -8.31, -8.57, -8.94, -8.1, -7.82, -8.1, -8.66, -6.4, -6.2, -3.07, -1.47, 0.0, 0.0, -2.02, -2.02, 0.0, 6.8, 11.99, 8.53, 5.52, 1.45, 2.04, 5.98, 7.19, 9.76, 10.37, 9.46, 8.93, 8.24, 8.22, 7.95, 7.43, 7.44, 7.63, 7.38, 7.38, 7.24, 6.45, 6.57, 6.0, 6.67, 5.75, 4.32, 3.21, 3.39, 7.81, 10.79, 12.45, 12.23, 11.28, 9.89, 8.49, 7.15, 6.24, 4.81, 3.46, 2.49, 1.72, 0.89, 0.0, -0.93, -1.98, -2.81, -3.32, -2.87, -2.65, -0.71, -0.73, 0.0, 5.46, 9.32, 8.93, 8.91, 7.15, 6.36, 5.75, 6.4, 7.15, 7.21, 8.18, 8.18, 7.44, 1.77, 1.77, 1.83, 0.0, 0.0, 0.0, 0.0, 0.0, -1.96, -3.44, -4.93, -6.43, -7.11, -6.73, -6.4, -5.81, -5.09, -4.81, -2.98, -3.16, -5.01, -5.51, -5.96, -3.58, -2.43, 0.0, 0.0, 0.0, 0.0, 0.0, 0.0, 1.61, 7.26, 10.4, 3.68, 0.0, 0.0, 5.0, 8.22, 9.27, 9.06, 8.91, 7.85, 8.22, 7.59, 7.59, 6.71, 6.2, 6.67, 7.26, 8.42, 8.76, 9.56, 9.62, 9.3, 9.67, 9.0, 8.22, 6.16, 4.4, 8.73, 10.68, 12.56, 13.11, 12.79, 11.9, 11.25, 10.63, 8.93, 7.78, 7.36, 6.0, 4.27, 2.64, 0.89, -0.89, -2.54, -3.82, -5.18, -4.89, -5.35, -4.35, -1.33, -0.98, 1.95, 5.37, 6.39, 6.32, 7.21, 6.71, 6.0, 5.06, 4.74, 6.4, 8.49, 7.59, 9.6, 6.32, 1.77, 1.77, 0.0, 0.0, 0.0, 0.0, 0.0, 0.0, -1.96, -3.56, -3.56, -4.71, -5.81, -6.4, -4.24, -2.81, -0.89, 0.0, 0.0, 1.0, 0.89, 0.0, 0.0, 0.0, 0.0, 0.0, 0.0, 0.0, 0.0, 0.0, 0.0, 3.08, 5.69, 4.2, 0.0, -1.28, 2.02, 7.14, 8.02, 8.97, 8.87, 8.78, 7.68, 8.22, 7.27, 6.64, 7.59, 7.59, 7.59, 6.87, 8.73, 9.27, 10.29, 11.26, 11.09, 11.5, 11.64, 9.62, 5.95, 7.27, 9.24, 13.01, 13.49, 13.39, 13.11, 13.75, 13.99, 13.43, 11.5, 10.66, 9.2, 7.73, 6.31, 2.81, 0.0, -1.77, -4.36, -5.6, -6.31, -7.44, -6.73, -3.25, 3.56, 1.16, 5.1, 6.32, 5.94, 6.04, 5.46, 7.2, 6.0, 4.96, 3.97, 5.06, 9.39, 7.9, 7.27, 5.37, 1.77, 1.77, 0.0, 0.0, 0.0, 0.0, 0.0, 0.0, -2.02, -1.66, -3.25, -4.38, -5.81, -5.48, -4.81, -3.42, -0.92, 0.0, 0.0, 0.68, 1.33, 1.23, 1.23, 0.62, 0.62, 0.6, 0.6, 1.19, 1.17, 0.0, 0.0, 0.86, 2.71, 1.92, 0.0, 1.22, 4.78, 6.86, 6.86, 6.67, 7.36, 7.19, 6.92, 5.95, 5.46, 4.96, 5.9, 6.42, 6.42, 6.95, 6.32, 7.02, 8.05, 9.24, 11.28, 11.3, 11.85, 9.8, 4.8, 7.07, 12.07, 13.18, 12.56, 12.45, 12.98, 13.49, 14.26, 14.3, 12.79, 12.51, 11.52, 9.7, 6.43, 2.61, -0.89, -4.24, -6.2, -8.44, -8.15, -5.99, -1.58, 4.58, 6.94, 7.69, 6.24, 5.64, 5.95, 4.99, 4.2, 6.32, 7.07, 3.6, 2.26, -0.0, 0.0, 0.0, 0.0, 0.0, 1.77, 1.77, 0.0, 0.0, 0.0, 0.0, 0.0, 0.0, -1.77, -1.72, -3.01, -3.1, -4.24, -4.37, -4.12, -3.9, -2.38, -1.01, 0.0, 0.0, 0.0, 0.68, 0.67, 1.34, 1.38, 1.2, 1.2, 1.2, 1.12, 0.55, -0.57, -0.82, 0.0, 0.0, 1.02, 3.3, 3.81, 4.99, 4.99, 4.8, 4.62, 3.53, 2.71, 3.53, 2.39, 4.4, 3.6, 3.49, 5.29, 6.42, 5.86, 6.32, 8.58, 11.28, 10.41, 8.4, 8.4, 6.63, 4.74, 6.79, 12.07, 12.71, 12.04, 12.04, 11.37, 11.37, 11.62, 11.62, 11.5, 10.66, 10.51, 8.56, 6.21, 2.95, -2.02, -7.9, -7.9, 0.0, 4.2, 4.2, 5.21, 5.9, 6.08, 5.81, 5.52, 4.25, 5.0, 3.39, 2.69, 3.32, 6.95, -0.0, -0.0, -0.0, -0.0, -0.0, 0.0, -8.05, 1.77, 1.77, 0.0, 0.0, 0.0, 0.0, 0.0, 0.0, -1.77, -1.77, -3.1, -3.1, -2.89, -4.37, -2.88, -2.96, -2.65, -1.15, -1.04, 0.0, 0.0, 0.0, 0.72, 0.69, 1.42, 2.02, 2.02, 1.91, 1.85, 1.16, 0.0, -0.66, -1.11, 0.0, 1.45, 3.11, 4.6, 4.56, 3.92, 2.83, 1.76, 1.16, 0.0, 1.52, 1.84, 1.75, 1.67, 1.4, 3.32, 5.9, 6.44, 6.17, 8.55, 7.07, 6.32, 6.7, 2.4, 0.0, 2.97, 7.85, 10.12, 10.41, 9.32, 9.32, 9.32, 9.32, 9.32, 9.09, 8.59, 8.22, 7.78, 5.6, 4.21, 1.69, -6.01, 8.06, 9.11, 8.06, 7.97, 7.36, 6.97, 6.45, 5.0, 4.23, 2.89, 3.18, 2.82, 2.02, 1.75, 1.62, 0.0, -0.0, -0.0, -2.26, -2.54, -6.32, -8.49, -8.49, 1.77, 1.77, 0.0, 0.0, 0.0, 0.0, 0.0, 0.0, -1.83, -1.77, -1.58, -2.89, -2.89, -2.72, -2.88, -1.5, -1.46, -1.37, -1.18, 0.0, 0.0, 0.0, 0.0, 0.78, 1.53, 2.17, 2.02, 1.94, 1.83, 1.19, 1.2, 0.0, -0.71, -1.14, 0.0, 0.94, 3.3, 3.99, 3.92, 1.18, 0.0, 0.0, 0.0, 0.0, 0.0, 0.0, 0.0, 1.58, 4.56, 4.83, 4.83, 5.69, 5.69, 5.69, 5.37, 3.4, 0.0, 0.0, 2.71, 7.27, 7.81, 7.81, 6.32, 6.32, 5.31, 5.59, 5.24, 6.95, 6.58, 6.87, 3.65, 0.71, 0.0, -1.11, 5.7, 9.8, 10.29, 10.86, 10.04, 8.56, 7.79, 7.01, 5.72, 4.01, 2.31, 0.81, 0.77, 0.0, 0.0, 0.0, -9.39, -3.97, -1.73, -2.54, -4.96, -6.32, -8.0, -8.0, 1.77, 1.77, 0.0, 0.0, 0.0, 0.0, 0.0, 0.0, -1.83, -1.63, -1.63, -1.47, -2.89, -1.38, -1.42, 0.0, -1.42, -1.37, -1.27, 0.0, 0.0, 0.0, 0.0, 0.87, 2.25, 2.05, 1.36, 1.3, 1.25, 0.64, 0.65, 0.0, 0.0, -1.13, -0.8, 0.0, 1.11, 1.45, 1.28, 0.0, 0.0, 0.0, 0.0, 0.0, 0.0, 0.0, 2.06, 4.83, 5.69, 5.1, 5.1, 5.36, 5.36, 5.36, 4.6, 4.0, 2.46, 2.7, 3.61, 6.98, 7.27, 6.64, 5.59, 3.8, 2.69, 2.67, 2.54, 2.99, 4.6, 2.82, 0.0, -2.19, -2.44, 0.0, 5.75, 10.22, 11.88, 11.29, 9.66, 8.99, 7.93, 7.13, 5.48, 4.24, 3.07, 1.54, 0.0, 0.0, -1.32, -8.0, -8.18, -2.4, -0.0, -0.0, -0.0, -0.0, 0.0, 0.0, 1.77, 1.77, 1.77, 0.0, 0.0, 0.0, 0.0, 0.0, 0.0, -1.63, -1.63, -1.47, -1.47, -1.51, 0.0, 0.0, 0.0, -1.34, 0.0, 0.0, 0.0, -0.98, 0.0, 0.87, 1.63, 1.44, 0.0, 0.0, 0.0, 0.0, 0.0, 0.0, 0.0, -0.87, -1.84, -1.73, -2.06, -2.7, -1.28, -1.28, -1.33, -1.4, 0.0, 0.0, 0.0, 2.17, 5.36, 6.32, 6.32, 4.6, 4.6, 5.59, 5.59, 5.59, 4.0, 4.0, 3.7, 3.87, 5.98, 6.69, 5.98, 5.46, 4.0, 2.46, 2.33, 1.65, 0.84, 0.0, 0.0, -1.39, -1.21, -1.6, 0.0, 2.81, 8.21, 9.87, 9.78, 8.39, 8.03, 7.11, 6.4, 5.38, 3.87, 2.14, 1.5, 1.52, 0.99, 0.0, 0.0, -3.25, -7.27, -0.0, 3.97, 7.44, 8.8, 9.83, 9.39, 9.39, 1.77, 1.77, 1.72, 0.0, 0.0, 0.0, 0.0, 0.0, 0.0, -1.63, -1.63, -1.47, -1.47, -1.47, -1.47, -1.78, -1.3, 0.0, 0.0, 1.17, 0.0, -1.94, -3.09, -1.3, 0.0, 0.0, -0.78, -1.1, -2.16, -1.63, -0.87, 0.0, 0.0, 0.0, -1.42, -4.8, -5.2, -5.13, -4.25, -2.42, -1.76, -0.93, 0.0, 0.0, 2.97, 4.83, 5.86, 4.6, 4.6, 4.0, 5.21, 4.96, 5.21, 4.96, 5.21, 4.66, 3.7, 4.88, 5.98, 5.98, 5.1, 3.87, 2.58, 1.84, 0.85, 0.8, 0.0, 0.0, -1.68, -2.62, 0.0, 1.63, 2.59, 3.77, 4.78, 3.89, 3.58, 2.5, 3.13, 3.13, 2.33, 1.57, 0.78, 0.73, 0.79, 0.81, 1.84, 1.84, 1.23, 0.0, 3.25, 6.95, 5.21, 7.15, 9.33, 9.83, 10.28, 10.28, 1.77, 1.77, 1.72, 0.0, 0.0, 0.0, 0.0, 0.0, 0.0, 0.0, -1.63, -1.47, -1.47, -1.34, -1.34, -1.3, -1.47, 0.0, 0.0, 0.0, -1.27, -3.28, -6.29, -7.4, -6.19, -4.54, -3.47, -1.95, -2.01, 0.0, 0.0, 0.0, 1.0, 1.03, 0.0, -1.72, -5.77, -5.69, -3.88, -1.59, -0.56, 0.0, 0.64, 1.87, 3.21, 3.61, 3.7, 3.7, 2.97, 4.0, 4.0, 4.0, 4.0, 4.0, 4.5, 4.34, 5.1, 5.49, 5.46, 4.6, 3.87, 2.58, 1.33, 1.33, 0.0, 0.0, 0.0, 0.0, -0.79, 0.0, 0.0, 1.65, 2.43, 1.63, 0.0, -0.87, -2.51, -3.39, -0.78, 0.0, 0.0, 0.0, 0.0, 0.0, 0.0, 0.73, 0.7, 1.39, 1.7, 1.39, 0.85, 2.28, 12.07, 9.75, 9.21, 10.28, 10.28, 10.28, 1.72, 1.77, 1.72, 1.72, 0.0, 0.0, 0.0, 0.0, 0.0, 0.0, 0.0, -1.47, -1.47, -1.34, -1.38, -1.38, -1.51, -1.53, -4.1, -4.37, -4.12, -3.9, -4.62, -5.64, -5.46, -3.79, -1.78, -0.92, 0.0, 0.0, 0.97, 0.97, 0.92, 1.83, 1.93, 0.0, -1.11, -3.34, -2.82, -1.36, -0.59, 0.0, 0.61, 1.22, 2.42, 2.6, 2.58, 2.58, 2.58, 2.46, 2.83, 2.69, 3.8, 3.8, 4.96, 5.1, 5.76, 6.24, 5.98, 3.7, 2.58, 2.58, 1.33, 0.0, 0.0, 0.0, 0.0, 0.0, 0.0, 0.0, 0.81, 1.59, 2.42, 1.56, 0.0, -4.23, -7.5, -7.82, -6.47, -4.52, -2.35, -1.58, 0.0, 0.0, 0.0, 0.0, 0.75, 0.7, 0.68, 0.68, 0.76, 0.0, 4.55, 8.93, 8.8, 7.68, 7.51, 7.51, 3.36, 1.53, 1.53, 1.53, 0.0, 0.0, 0.0, 0.0, 0.0, 0.0, 0.0, 0.0, -1.47, -1.34, -1.34, -1.38, -1.38, -1.3, -3.65, -5.3, -4.15, -1.15, -1.2, -2.57, -2.52, -2.25, -0.97, 0.0, 0.0, 0.0, 0.0, 0.83, 0.83, 0.87, 0.87, 0.85, 0.0, -0.81, -1.48, -1.36, -0.56, 0.0, 0.0, 0.0, 0.56, 1.81, 2.39, 1.22, 1.33, 1.26, 1.4, 1.32, 2.54, 4.14, 5.31, 6.32, 7.06, 7.68, 5.98, 3.7, 2.69, 1.84, 0.85, 0.0, 0.0, 0.0, 0.0, 0.0, 0.0, 1.23, 3.34, 5.5, 7.08, 5.56, -2.53, -6.56, -9.11, -10.25, -9.58, -8.76, -6.28, -3.71, -1.57, 0.0, 0.0, 0.0, 0.0, 0.0, 0.7, 0.68, 0.0, 0.83, 4.64, 6.58, 6.64, 5.21, 6.11, 6.11, 3.01, 3.01, 1.53, 1.53, 0.0, 0.0, 0.0, 0.0, 0.0, 0.0, 0.0, 0.0, -1.47, -1.34, -1.34, -1.26, -1.26, -1.34, -2.35, -3.32, -3.16, -1.04, -0.98, -1.01, -1.0, -1.0, -0.97, 0.0, 0.0, 0.0, 0.0, 0.0, 0.0, 0.0, 0.0, 0.0, 0.0, 0.0, 0.0, -0.63, -0.58, -0.55, -0.55, 0.0, 0.0, 1.09, 1.22, 0.0, 0.0, 0.0, 0.0, 1.49, 2.82, 4.83, 5.69, 6.01, 6.91, 7.4, 6.58, 4.12, 2.69, 0.89, 0.0, 0.0, 0.0, 0.0, 0.0, 0.0, 0.0, 2.35, 4.8, 6.4, 4.91, 4.12, 2.33, 0.0, -5.54, -7.69, -9.34, -9.53, -7.93, -6.31, -4.81, -2.37, -1.58, 0.0, 0.0, 0.0, 0.0, 1.76, 0.93, 2.71, 5.76, 6.23, 6.23, 5.52, 5.59, 5.59, 3.01, 3.01, 1.53, 1.53, 0.0, 0.0, 0.0, 0.0, 0.0, 0.0, 0.0, 0.0, -1.51, -1.34, -1.38, -1.26, -1.26, -1.23, -2.43, -2.24, -2.21, -2.13, -1.89, -1.67, -1.72, -1.78, -0.94, -0.97, -0.92, -0.87, 0.0, 0.0, 0.0, 0.0, 0.0, 0.0, 0.0, 0.0, 0.0, 0.0, -0.57, -0.57, -0.58, 0.0, 0.0, 0.0, 0.0, 0.0, 0.0, 0.0, 3.15, 2.99, 4.14, 4.56, 4.56, 6.08, 5.93, 6.18, 6.14, 4.88, 2.54, 0.89, 0.94, 0.94, 0.94, 0.89, 1.75, 1.16, 3.45, 5.21, 6.04, 0.0, 1.54, 4.74, 6.28, 5.5, 3.34, 1.22, -1.55, -5.36, -7.03, -6.53, -6.14, -5.02, -3.19, -2.31, -0.82, 0.0, 0.85, 2.47, 2.47, 4.4, 5.46, 5.78, 5.04, 5.59, 6.32, 6.32, 1.53, 1.53, 1.53, 1.53, 1.48, 0.0, 0.0, 0.0, 0.0, 0.0, 0.0, 0.0, -1.51, -1.38, -1.38, -1.26, -2.43, -2.43, -2.43, -2.31, -2.38, -2.34, -3.24, -2.88, -2.56, -2.5, -1.83, -1.78, -0.89, -0.89, -0.87, -0.85, -0.82, -0.8, 0.0, 0.0, 0.0, 0.0, 0.0, 0.0, 0.0, 0.0, 0.0, 0.0, 0.0, 0.0, -0.54, 0.0, 0.67, 1.44, 2.12, 3.11, 2.99, 3.4, 4.56, 5.37, 5.37, 4.02, 3.6, 4.0, 3.87, 1.75, 1.95, 1.84, 1.94, 2.57, 3.32, 4.2, 6.53, 6.31, 2.94, 0.0, 1.15, 3.93, 6.42, 7.28, 7.13, 4.85, 1.06, -0.82, -3.19, -5.6, -5.68, -5.68, -4.87, -3.02, -1.62, -0.78, 0.0, 2.83, 4.71, 5.18, 5.7, 5.64, 5.38, 5.94, 6.32, 6.32, 1.53, 1.53, 1.48, 1.48, 1.48, 0.0, 0.0, 0.0, 0.0, 0.0, 0.0, -1.51, -1.38, -1.42, -1.42, -2.5, -2.43, -2.43, -2.43, -2.31, -2.38, -2.34, -2.25, -3.05, -2.97, -2.64, -2.57, -1.83, -1.78, -1.78, -0.89, -0.87, -0.87, -0.82, -0.8, -0.8, -0.84, -0.84, 0.0, 0.0, 0.0, 0.0, 0.0, 0.0, 0.0, 0.0, -0.57, 0.0, 0.0, 0.71, 1.4, 1.36, 1.47, 2.82, 2.82, 3.6, 3.2, 1.73, 1.84, 3.15, 3.87, 3.61, 2.69, 1.84, 1.94, 2.83, 4.98, 7.27, 6.83, 5.29, 2.82, 1.25, 0.81, 3.22, 5.51, 7.22, 7.05, 5.01, 2.37, 0.0, -3.16, -4.75, -5.4, -5.0, -4.8, -3.85, -2.39, -0.81, 0.85, 3.15, 5.21, 5.7, 5.95, 5.46, 5.78, 6.53, 6.58, 6.58, 1.48, 1.48, 1.48, 1.48, 1.48, 0.0, 0.0, 0.0, 0.0, 0.0, 0.0, -1.51, -1.38, -1.42, -1.3, -2.5, -2.43, -2.43, -2.43, -2.31, -2.38, -2.28, -2.19, -3.33, -3.05, -2.97, -2.72, -1.88, -1.83, -1.83, -1.73, -1.78, -1.78, -1.83, -1.83, -1.78, -1.73, -1.73, -0.84, -0.77, -0.64, 0.0, 0.0, 0.0, 0.0, 0.0, 0.0, 0.0, 0.0, 0.0, 0.0, 0.67, 0.65, 0.79, 1.96, 1.84, 1.49, 1.73, 1.1, 2.26, 2.83, 2.47, 2.49, 0.89, 1.47, 4.21, 7.4, 7.27, 5.46, 4.6, 1.76, 0.89, 0.0, 1.66, 3.1, 4.71, 4.04, 2.2, 0.78, -0.77, -2.47, -6.16, -5.98, -5.06, -4.5, -3.61, -2.44, 0.0, 2.98, 4.94, 5.59, 5.86, 6.31, 6.57, 6.44, 6.87, 7.22, 7.22, 1.48, 1.48, 1.48, 1.48, 1.48, 0.0, 0.0, 0.0, 0.0, 0.0, 0.0, -1.51, -1.38, -1.42, -2.57, -2.57, -2.43, -2.43, -2.5, -2.38, -2.38, -2.28, -2.34, -3.24, -3.05, -3.05, -2.97, -2.88, -2.72, -1.88, -1.88, -1.88, -1.88, -1.88, -1.88, -1.88, -1.88, -1.83, -1.83, -1.72, -0.76, -0.63, 0.0, 0.0, 0.55, 1.1, 0.55, 0.0, 0.0, 0.0, 0.0, 0.0, 0.0, 0.0, 0.0, 0.0, 0.0, 0.0, 1.03, 2.12, 0.94, 0.85, 0.0, 0.89, 3.14, 7.27, 8.12, 6.48, 4.78, 2.71, 1.84, 0.0, 0.0, -0.86, -0.81, -0.79, -1.6, -0.78, 0.0, -0.77, -1.95, -4.83, -5.36, -3.25, -2.7, -2.28, 0.0, 2.21, 3.8, 4.5, 5.36, 4.83, 6.31, 6.29, 7.02, 7.02, 7.09, 7.09, 1.48, 1.48, 1.48, 1.48, 1.48, 0.0, 0.0, 0.0, 0.0, 0.0, 0.0, -1.51, -1.38, -1.42, -2.57, -2.57, -2.5, -2.43, -2.5, -2.57, -2.38, -2.38, -2.28, -3.24, -3.05, -3.05, -2.97, -2.88, -2.88, -1.94, -1.88, -1.88, -1.88, -1.88, -1.88, -1.88, -1.88, -1.88, -1.83, -1.83, -1.62, -0.7, -0.62, 0.0, 0.89, 1.75, 0.58, -0.6, -1.24, -0.54, -0.58, -0.67, 0.0, 0.0, -0.79, -0.83, -1.4, 0.0, 0.0, 1.1, 0.0, 0.0, -0.78, 0.94, 5.46, 8.55, 8.79, 6.77, 3.81, 1.93, 0.0, 0.0, -0.8, -2.45, -4.61, -6.24, -6.54, -3.95, -1.53, 0.0, 0.0, 0.0, 0.0, 0.89, 0.8, 1.4, 2.26, 2.4, 3.27, 3.15, 4.2, 4.6, 5.77, 6.21, 6.87, 6.87, 6.44, 6.44, 1.48, 1.48, 1.48, 1.48, 0.0, 0.0, 0.0, 0.0, 0.0, 0.0, 0.0, -1.34, -1.38, -1.42, -2.57, -2.57, -2.57, -2.5, -2.5, -2.5, -2.38, -2.31, -2.21, -3.16, -3.16, -3.24, -3.16, -2.88, -1.94, -1.94, -1.94, -1.94, -2.72, -2.72, -2.72, -1.83, -2.8, -2.0, -1.94, -1.94, -1.83, -1.55, -0.68, -0.65, 0.0, 0.0, 0.0, -1.5, -2.0, -2.39, -1.07, 0.0, -0.71, -0.74, -0.78, -1.73, -1.96, -0.83, 0.0, 0.0, -0.89, -1.6, -0.85, 2.06, 6.79, 7.28, 7.51, 8.24, 5.21, 1.84, 0.0, 0.0, 0.0, -0.79, -3.87, -6.42, -6.54, -4.76, -1.62, 0.0, 0.77, 0.56, 0.56, 1.05, 1.65, 2.88, 2.7, 2.82, 2.82, 3.69, 4.23, 4.58, 5.02, 5.48, 6.27, 6.48, 6.27, 6.27, 1.48, 1.48, 1.48, 1.48, 0.0, 0.0, 0.0, 0.0, 0.0, 0.0, 0.0, -1.47, -1.38, -2.8, -2.57, -2.57, -2.57, -2.5, -2.5, -2.5, -2.5, -2.31, -2.31, -3.28, -3.16, -3.16, -3.16, -2.07, -2.01, -1.89, -2.88, -2.72, -2.64, -2.64, -2.64, -2.64, -2.72, -2.72, -2.88, -1.94, -2.01, -1.77, -1.58, -0.72, -1.44, -2.59, -2.81, -1.66, 0.0, 0.0, 1.25, 0.7, 0.63, 0.0, 0.0, -1.1, -2.26, -2.4, -2.09, -0.95, -1.65, -1.67, 0.0, 5.2, 5.44, 5.69, 5.03, 5.63, 4.4, 1.39, 0.0, 0.0, 1.71, 1.58, -0.77, -4.75, -5.83, -4.71, -3.36, -0.8, 0.0, 0.72, 0.56, 1.12, 1.6, 2.21, 2.75, 4.24, 3.61, 4.5, 4.4, 4.24, 4.31, 4.24, 5.02, 5.63, 4.86, 4.86, 1.48, 1.48, 1.48, 1.48, 0.0, 0.0, 0.0, 0.0, 0.0, 0.0, 0.0, -1.47, -1.34, -2.72, -2.57, -2.57, -2.57, -2.57, -2.57, -2.72, -2.5, -2.5, -3.52, -3.28, -3.07, -3.16, -3.16, -3.18, -2.72, -1.89, -2.98, -3.07, -2.8, -2.8, -2.72, -2.64, -2.64, -2.72, -2.88, -2.88, -2.07, -1.89, -1.64, -1.5, -2.21, -3.61, -2.76, -0.84, 0.0, 0.85, 1.32, 1.12, 1.14, 0.58, 0.59, 0.0, 0.0, -1.4, -2.82, -2.82, -1.73, 0.0, 2.98, 2.83, 3.35, 2.21, 1.25, 0.0, 0.0, 0.0, 0.93, 1.93, 2.93, 2.43, 1.62, -1.62, -4.13, -4.49, -2.63, -1.45, 0.0, 0.72, 1.46, 1.11, 1.67, 2.21, 2.73, 3.91, 4.75, 4.58, 4.48, 4.17, 3.66, 3.47, 4.24, 4.24, 4.1, 4.1, 1.48, 1.48, 1.48, 0.0, 0.0, 0.0, 0.0, 0.0, 0.0, 0.0, 0.0, -1.47, -1.34, -1.34, -2.8, -2.57, -2.57, -2.8, -2.8, -2.72, -2.57, -2.57, -3.52, -3.18, -3.28, -3.07, -3.28, -3.18, -3.0, -3.62, -3.0, -3.18, -3.28, -3.28, -2.98, -2.98, -2.98, -2.98, -3.07, -3.07, -2.07, -2.09, -1.77, -1.45, -2.15, -2.19, -2.14, -0.81, 0.0, 0.0, 0.0, 0.62, 0.58, 0.55, 0.56, 0.0, 0.0, 0.0, -1.1, -1.98, -0.67, 0.0, 1.47, 1.07, 1.0, 1.0, 0.0, -1.05, 0.0, 0.0, 1.76, 2.71, 1.01, 0.0, 0.0, 0.0, -1.53, -1.76, -1.58, -0.69, 0.0, 0.71, 1.43, 1.39, 1.64, 1.67, 2.73, 4.08, 4.65, 4.06, 3.96, 3.53, 2.87, 2.81, 2.13, 3.14, 2.87, 2.87, 1.43, 1.43, 1.48, 0.0, 0.0, 0.0, 0.0, 0.0, 0.0, 0.0, 0.0, -1.47, -1.34, -1.34, -2.72, -2.57, -2.8, -2.72, -2.72, -2.8, -2.8, -2.57, -3.52, -3.18, -3.18, -3.28, -3.28, -3.18, -3.92, -3.8, -2.89, -3.09, -2.09, -2.15, -2.15, -2.15, -2.15, -2.15, -2.21, -2.21, -2.21, -2.15, -2.04, -1.52, -1.45, -1.48, -1.44, -1.55, -0.8, -0.67, 0.0, 0.0, 0.0, 0.0, 0.0, 0.0, 0.0, 0.0, -0.72, -0.76, 0.0, 0.0, 0.0, 0.0, 0.0, 0.0, 0.0, 0.0, 0.0, 0.0, 1.93, 2.71, 0.0, -0.86, -0.81, 1.61, 2.42, 1.66, 0.0, 0.0, 0.0, 0.0, 0.0, 0.72, 1.46, 1.66, 2.73, 2.75, 3.66, 3.23, 2.37, 2.37, 1.41, 1.38, 1.38, 2.06, 1.38, 1.38, 1.43, 1.43, 0.0, 0.0, 0.0, 0.0, 0.0, 0.0, 0.0, 0.0, 0.0, -1.47, -1.34, -1.34, -2.72, -2.8, -2.72, -2.98, -2.72, -2.8, -2.8, -2.57, -3.52, -3.52, -3.18, -3.18, -3.28, -3.18, -4.18, -3.92, -2.89, -2.81, -1.89, -2.02, -2.09, -2.15, -2.15, -2.15, -2.31, -2.38, -2.38, -2.31, -1.15, -0.89, -0.73, -1.42, -1.54, -1.6, -1.6, -0.73, -0.7, -0.67, -0.61, -0.65, 0.0, 0.0, -0.58, -0.55, -1.1, -1.16, 0.0, 0.0, 0.0, 0.0, 0.0, 0.0, 0.0, 0.0, 0.0, 1.04, 1.68, 1.39, 0.0, 0.0, 0.0, 2.42, 4.85, 4.79, 2.44, 0.0, -2.15, -2.17, -1.46, 0.0, 0.72, 1.67, 1.69, 2.25, 1.55, 1.6, 1.54, 0.8, 0.77, 0.71, 0.0, 0.0, 0.71, 0.71, 1.43, 1.43, 0.0, 0.0, 0.0, 0.0, 0.0, 0.0, 0.0, 0.0, -1.47, -1.47, -1.34, -1.34, -2.64, -2.72, -1.51, -1.51, -2.98, -2.8, -2.8, -3.79, -3.52, -3.52, -3.28, -3.18, -3.18, -3.18, -3.09, -3.09, -2.89, -2.89, -2.81, -2.72, -1.89, -1.89, -2.09, -2.15, -2.15, -1.17, -1.17, -1.26, -1.19, -1.0, -0.79, -0.73, -1.42, -1.64, -1.71, -1.58, -1.39, -1.39, -1.33, -1.36, -0.62, -0.57, -0.57, -1.07, -1.09, -1.14, -1.3, 0.0, 0.0, 0.0, 0.0, 0.0, 1.14, 1.05, 0.99, 0.0, 0.0, 0.98, 1.29, 0.84, 0.0, 0.8, 3.18, 4.06, 2.37, 0.0, -2.3, -2.12, -1.48, 0.0, 0.7, 1.4, 1.46, 0.75, 0.77, 0.8, 0.8, 0.8, 0.8, 0.0, 0.0, 0.0, 0.0, 0.0, 1.43, 1.43, 0.0, 0.0, 0.0, 0.0, 0.0, 0.0, 0.0, 0.0, -1.42, -1.47, -1.47, -1.34, -1.34, -1.38, -1.51, -1.51, -2.98, -2.8, -2.8, -3.79, -3.52, -3.52, -3.42, -3.42, -3.42, -3.42, -3.09, -3.09, -3.09, -3.09, -3.0, -2.9, -2.9, -1.83, -1.89, -2.09, -2.09, -2.15, -2.31, -1.26, -1.25, 0.0, 0.0, -0.67, -1.45, -1.58, -1.77, -1.77, -1.63, -1.56, -1.5, -1.43, -1.29, -1.14, -1.14, -1.14, -1.73, -1.23, -1.16, -0.7, 0.0, 0.0, 0.0, 0.0, 0.0, 0.0, 0.0, 0.0, 0.0, 0.98, 1.33, 2.35, 0.79, 0.0, 0.0, 0.0, 0.0, 0.0, 0.0, 0.0, 0.0, 0.0, 0.69, 0.72, 0.72, 0.74, 0.74, 0.8, 0.8, 0.0, 0.0, 0.0, 0.0, 0.0, 0.0, 0.0, 1.43, 1.43, 0.0, 0.0, 0.0, 0.0, 0.0, 0.0, 0.0, 0.0, -1.42, -1.42, -1.42, -1.3, -1.34, -1.51, -1.51, -1.51, -2.98, -2.8, -2.8, -3.79, -3.52, -3.52, -3.52, -3.42, -3.42, -3.42, -3.32, -3.09, -3.0, -3.0, -3.0, -2.9, -2.9, -2.9, -1.96, -2.02, -2.09, -2.09, -2.09, -2.5, -1.21, -1.18, 0.0, -0.68, -2.34, -2.61, -2.93, -2.93, -2.82, -2.71, -2.41, -2.11, -1.91, -1.81, -1.78, -1.78, -1.71, -1.76, -1.7, -1.35, 0.0, 0.0, 0.0, 0.0, 0.0, 0.0, 0.0, 0.0, 0.0, 0.0, 1.28, 1.72, 1.64, 0.82, -0.79, -2.39, -2.18, -0.7, 0.71, 1.45, 1.36, 0.72, 0.0, 0.0, 0.0, 0.0, 0.0, 0.0, 0.0, 0.0, 0.0, 0.0, 0.0, 0.0, 0.0, 0.0, 1.43, 1.43, 0.0, 0.0, 0.0, 0.0, 0.0, 0.0, 0.0, 0.0, -1.42, -1.42, -1.42, -1.42, -1.47, -1.47, -1.51, -1.68, -2.98, -2.72, -4.12, -3.79, -3.79, -3.42, -3.42, -3.32, -3.32, -3.32, -3.32, -3.09, -3.0, -3.0, -3.22, -3.12, -3.12, -2.11, -1.96, -1.96, -2.02, -3.0, -3.32, -2.43, -2.4, -2.82, -1.93, -1.44, -2.63, -4.24, -3.73, -3.73, -3.29, -3.18, -2.94, -2.49, -1.91, -1.81, -2.5, -1.78, -1.71, -1.63, -1.67, -1.73, -1.47, -1.58, 0.0, -1.58, -1.07, -1.0, 0.0, 0.0, 0.0, 0.0, 0.0, 1.29, 3.58, 4.07, 1.59, -0.78, -2.39, -0.72, 0.0, 0.7, 0.7, 0.0, 0.0, 0.0, 0.0, 0.0, 0.0, 0.0, 0.0, 0.0, -0.8, -0.77, -0.8, -0.8, -0.68, 0.0, 0.0, 0.0, 0.0, 0.0, 0.0, 0.0, 0.0, 0.0, 0.0, 0.0, -1.42, -1.42, -1.42, -1.42, -1.47, -1.47, -1.68, -1.68, -2.98, -2.72, -4.0, -3.69, -3.79, -3.79, -3.42, -3.32, -3.32, -3.32, -3.32, -3.32, -3.22, -3.12, -3.12, -3.12, -3.12, -3.12, -3.12, -3.12, -2.9, -2.9, -3.22, -3.58, -3.65, -3.97, -4.13, -4.1, -3.93, -4.11, -3.36, -3.25, -2.91, -2.72, -2.28, -2.82, -2.35, -1.95, -2.69, -2.5, -2.37, -2.26, -2.32, -2.2, -2.82, -1.84, -1.58, 0.0, -1.07, 0.0, 0.0, 0.0, 0.0, 0.0, 0.0, 0.0, 2.62, 4.66, 4.88, 1.54, 0.0, -0.8, 0.0, 0.75, 0.71, 0.69, 0.0, 0.0, 0.0, 0.0, 0.0, 0.0, 0.0, 0.0, -0.8, -0.77, -0.77, -0.77, -0.77, -0.77, 0.0, 0.0, 0.0, 0.0, 0.0, 0.0, 0.0, 0.0, 0.0, 0.0, -1.38, -1.42, -1.42, -1.42, -1.42, -1.63, -1.63, -1.68, -2.89, -2.72, -4.0, -3.69, -3.69, -3.69, -3.42, -3.32, -3.32, -3.32, -3.32, -3.32, -3.22, -3.12, -3.12, -3.12, -3.02, -3.12, -3.12, -3.12, -3.12, -3.12, -3.22, -4.52, -4.38, -4.64, -4.87, -4.93, -3.22, -1.25, -1.43, -1.43, -1.43, -1.33, -1.23, -2.13, -1.67, -2.12, -2.69, -2.5, -2.37, -2.23, -2.77, -2.82, -1.73, -1.58, -1.58, 0.0, 0.0, 0.0, 0.0, 1.0, 0.94, 0.0, 0.0, 0.0, 0.0, 0.0, 3.22, 4.66, 4.01, 2.37, 1.63, 1.48, 1.41, 1.43, 1.43, 0.78, 0.77, 0.74, 0.74, 0.0, 0.0, 0.0, 0.0, -0.8, -0.77, -0.77, -0.77, -0.77, 0.0, 0.0, 0.0, 0.0, 0.0, 0.0, 0.0, 0.0, 0.0, -1.38, -1.38, -1.38, -1.42, -1.42, -1.58, -1.63, -1.63, -3.2, -2.89, -2.72, -4.0, -3.69, -3.69, -3.69, -3.58, -3.22, -3.32, -3.32, -3.32, -3.58, -3.47, -3.36, -3.12, -3.02, -3.02, -3.02, -3.12, -3.12, -4.08, -4.08, -4.21, -4.52, -4.38, -4.81, -4.33, -4.49, -3.02, -2.13, -1.0, -0.97, -1.01, -1.01, -0.93, -0.89, -1.67, -1.44, -2.12, -2.54, -2.54, -2.92, -2.96, -2.8, -2.4, -2.82, 0.0, 0.0, 1.67, 0.0, 1.01, 1.95, 0.89, 0.0, -0.89, -0.89, -0.97, -0.93, 0.84, 4.79, 7.17, 7.15, 5.96, 4.07, 2.3, 1.42, 0.73, 0.7, 0.74, 0.0, 0.0, 0.0, 0.0, 0.0, 0.0, -0.8, -0.8, -0.77, -0.77, -0.77, 1.38, 1.38, 0.0, 0.0, 0.0, 0.0, 0.0, 0.0, 0.0, -1.38, -1.38, -1.38, -1.42, -1.58, -1.58, -1.63, -1.63, -3.2, -2.89, -2.64, -4.0, -4.0, -3.69, -3.69, -3.69, -3.58, -3.58, -3.58, -3.58, -3.58, -2.35, -2.35, -3.36, -3.36, -3.25, -3.02, -3.02, -4.08, -4.08, -4.08, -4.52, -4.52, -4.38, -4.1, -4.64, -3.82, -3.96, -3.04, -1.91, -1.63, -0.75, -0.72, -0.65, -1.4, -1.4, -1.44, -1.36, -2.0, -2.4, -2.4, -2.96, -3.0, -3.08, -1.88, 0.0, 0.0, 1.67, 2.4, 2.09, 2.09, 0.0, 0.0, -0.99, -0.98, -0.93, 0.0, 0.89, 3.28, 5.51, 8.71, 9.43, 8.8, 6.1, 2.53, 0.0, 0.0, 0.0, -0.76, -0.81, -1.55, -1.08, -1.58, -1.64, -1.6, -1.54, -1.54, -1.54, -1.54, 1.38, 1.38, 0.0, 0.0, 0.0, 0.0, 0.0, 0.0, 0.0, -1.38, -1.38, -1.38, -1.58, -1.58, -1.58, -1.63, -3.2, -2.89, -2.89, -2.89, -3.88, -3.88, -3.69, -3.69, -3.58, -3.58, -3.58, -3.58, -3.58, -3.58, -3.47, -3.47, -3.36, -3.36, -3.02, -3.02, -3.02, -4.08, -4.08, -4.08, -4.38, -4.52, -4.38, -4.24, -3.96, -3.82, -4.28, -3.04, -2.93, -2.51, -2.31, -2.01, -1.14, -1.22, -1.22, -1.32, -1.44, -2.0, -1.88, -2.44, -2.49, -2.72, -2.6, -1.88, -0.67, 0.0, 0.0, 0.0, 0.0, 0.0, -1.0, -1.05, -0.94, -0.93, 0.0, 0.0, 0.93, 1.65, 4.04, 7.0, 9.55, 9.42, 7.49, 4.82, 2.44, 0.0, -0.72, -2.13, -2.39, -3.25, -3.18, -2.25, -2.34, -2.44, -2.44, -2.34, -2.34, -2.34, 1.38, 1.38, 0.0, 0.0, 0.0, 0.0, 0.0, 0.0, 0.0, -1.38, -1.38, -1.53, -1.53, -1.58, -1.58, -3.1, -3.1, -2.81, -2.81, -2.81, -3.88, -3.88, -3.88, -3.69, -3.69, -3.58, -3.47, -3.58, -3.58, -3.58, -3.58, -3.47, -3.47, -3.12, -3.02, -3.02, -3.94, -3.94, -4.08, -4.38, -4.38, -4.38, -4.38, -4.58, -4.43, -4.12, -4.28, -4.28, -4.28, -2.82, -2.41, -2.11, -2.01, -1.81, -1.81, -1.81, -1.84, -1.84, -1.73, -1.76, -1.98, -2.2, -2.29, -1.84, -0.76, 0.0, 0.0, 0.0, -1.58, -1.0, -1.05, -1.05, 0.0, 0.0, 0.0, 0.89, 0.89, 1.77, 3.44, 5.48, 7.23, 7.88, 8.2, 7.74, 5.96, 2.25, -0.72, -2.97, -4.1, -4.06, -3.91, -4.01, -3.29, -2.95, -2.95, -3.61, -3.61, -3.61, 1.38, 1.38, 0.0, 0.0, 0.0, 0.0, 0.0, 0.0, 0.0, -1.33, -1.53, -1.53, -1.53, -1.58, -1.58, -3.1, -3.1, -2.81, -2.81, -2.81, -2.89, -3.88, -4.0, -4.0, -3.69, -3.58, -3.47, -3.36, -3.47, -3.47, -3.58, -3.58, -3.47, -3.12, -3.94, -3.94, -3.94, -4.24, -4.24, -4.24, -4.24, -4.74, -4.74, -4.58, -4.43, -4.65, -4.81, -4.28, -4.28, -3.68, -3.39, -3.02, -2.76, -2.63, -2.37, -2.37, -2.23, -2.4, -2.26, -1.76, -1.36, -1.72, -1.98, -2.16, -1.05, 0.0, -1.58, -1.58, -1.58, -1.0, 0.0, 0.0, 0.0, 0.0, 0.0, 0.0, 0.93, 1.76, 3.53, 4.17, 4.81, 5.51, 7.88, 9.37, 7.92, 4.4, 0.7, -2.22, -5.4, -5.99, -5.86, -5.0, -4.8, -3.95, -4.5, -3.85, -3.85, -3.85, 1.38, 1.38, 0.0, 0.0, 0.0, 0.0, 0.0, 0.0, 0.0, -1.48, -1.53, -1.53, -1.53, -1.58, -3.1, -3.1, -2.81, -2.81, -2.81, -2.81, -2.81, -3.88, -3.88, -3.88, -3.88, -3.88, -3.76, -3.65, -3.36, -3.36, -3.36, -3.47, -3.47, -4.38, -3.94, -3.94, -4.24, -4.24, -4.24, -4.24, -4.58, -4.58, -4.74, -4.98, -4.81, -4.65, -4.81, -4.81, -4.12, -3.97, -3.39, -3.02, -2.89, -2.76, -2.37, -2.89, -2.89, -2.37, -2.4, -1.76, -1.45, -1.63, -1.98, -1.41, -1.3, -1.73, -1.25, -1.14, 0.0, -1.0, -0.99, -1.04, 0.0, 0.0, 0.0, 0.0, 0.93, 1.93, 2.71, 3.53, 3.32, 4.1, 6.47, 8.0, 7.3, 5.18, 0.0, -3.16, -5.0, -6.2, -6.71, -6.7, -6.42, -5.52, -5.18, -4.6, -4.6, -4.6, 1.38, 1.33, 0.0, 0.0, 0.0, 0.0, 0.0, 0.0, -1.48, -1.48, -1.53, -1.72, -1.58, -1.58, -3.01, -3.01, -2.72, -2.72, -2.72, -2.81, -4.11, -3.88, -3.88, -3.88, -3.88, -3.88, -3.76, -3.76, -3.65, -3.25, -3.25, -3.25, -4.38, -4.38, -4.24, -4.1, -4.1, -4.1, -4.1, -4.43, -4.58, -4.58, -4.98, -4.98, -4.81, -5.27, -4.81, -4.65, -4.48, -3.97, -3.39, -3.25, -2.89, -3.21, -3.05, -3.05, -2.89, -3.09, -2.4, -1.76, -2.12, -1.63, -1.98, -2.6, -1.7, -2.12, -1.4, -1.25, -1.07, -1.0, -1.84, -1.94, -2.04, -1.04, 0.0, 0.0, 1.04, 1.04, 1.93, 2.82, 2.61, 2.71, 3.96, 4.81, 3.89, 1.43, 0.0, -0.73, -2.59, -5.06, -7.18, -7.61, -7.59, -6.79, -6.05, -5.28, -5.28, -5.28, 1.33, 0.0, 0.0, 0.0, 0.0, 0.0, 0.0, 0.0, -1.48, -1.48, -1.72, -1.72, -1.58, -1.58, -3.01, -2.63, -2.63, -2.72, -2.81, -2.81, -2.81, -4.11, -3.88, -3.88, -3.88, -3.88, -3.76, -3.76, -3.65, -3.36, -4.24, -4.24, -4.24, -4.24, -4.1, -4.1, -4.1, -4.1, -4.1, -4.43, -4.43, -4.43, -4.98, -4.98, -5.27, -5.27, -5.08, -4.65, -4.48, -3.97, -3.67, -3.11, -3.11, -3.37, -3.21, -2.89, -2.89, -2.92, -2.6, -2.44, -1.93, -2.12, -2.64, -2.32, -1.84, 0.0, -1.63, -2.49, -2.12, -3.2, -2.09, -2.06, -3.3, -4.2, -2.04, -1.04, 0.0, 0.0, 0.93, 0.93, 0.93, 1.7, 1.71, 0.77, 0.0, 0.0, 0.0, 0.0, -0.72, -2.35, -4.56, -7.35, -8.06, -7.64, -6.95, -6.24, -6.24, -6.24, 0.0, 0.0, 0.0, 0.0, 0.0, 0.0, 0.0, 0.0, -1.43, -1.66, -1.72, -1.53, -1.58, -1.53, -2.91, -2.63, -2.72, -2.72, -2.81, -2.81, -2.81, -4.11, -4.24, -4.24, -3.88, -3.76, -3.76, -3.65, -4.74, -4.74, -4.24, -4.24, -4.24, -4.24, -4.1, -4.1, -4.1, -4.28, -5.18, -5.36, -5.36, -4.81, -4.81, -4.81, -5.27, -5.27, -5.08, -5.08, -4.48, -4.32, -3.67, -3.25, -3.95, -3.61, -3.44, -3.27, -3.09, -2.92, -2.44, -2.44, -2.49, -2.72, -2.35, -3.45, -4.11, -2.2, -3.97, -3.45, -3.45, -2.26, -3.4, -3.99, -3.8, -5.2, -4.4, -3.3, -1.11, 0.0, 0.0, 0.0, 0.0, 0.0, 0.0, 0.0, 0.0, 0.0, 0.0, 0.0, -0.68, -1.36, -1.47, -4.71, -7.58, -7.44, -7.06, -6.32, -6.32, -6.32, 0.0, 0.0, 0.0, 0.0, 0.0, 0.0, 0.0, -1.43, -1.43, -1.66, -1.72, -1.53, -1.53, -1.53, -2.63, -2.63, -2.72, -2.72, -2.72, -2.81, -2.81, -4.11, -4.24, -4.24, -4.24, -4.11, -3.76, -4.74, -4.74, -4.58, -4.58, -4.24, -4.24, -4.24, -4.1, -4.81, -5.18, -5.18, -5.18, -5.18, -5.8, -5.8, -4.81, -4.81, -5.27, -5.27, -5.08, -5.08, -5.4, -5.2, -4.44, -4.25, -3.78, -3.61, -3.44, -3.27, -3.27, -3.33, -3.14, -2.96, -2.77, -2.49, -2.72, -3.72, -3.47, -3.79, -2.73, -2.2, -2.66, -2.26, -2.99, -3.99, -3.99, -3.4, -3.97, -5.2, -3.14, -1.94, -1.84, -1.93, -0.89, 0.0, 0.0, 0.0, 0.0, 0.0, -0.72, -1.45, -1.38, -2.14, -2.1, -2.83, -5.15, -7.6, -7.03, -6.44, -6.44, -6.44, 0.0, 0.0, 0.0, 0.0, 0.0, 0.0, 0.0, -1.43, -1.61, -1.66, -1.48, -1.48, -1.48, -1.48, -2.54, -2.63, -2.72, -2.72, -2.72, -2.81, -2.81, -4.11, -4.11, -4.11, -4.11, -4.11, -5.15, -4.74, -4.74, -4.58, -4.43, -4.58, -4.58, -5.16, -4.99, -5.18, -5.18, -5.18, -5.4, -5.6, -5.6, -5.6, -4.81, -5.27, -5.27, -6.08, -6.08, -6.08, -5.6, -5.2, -4.8, -4.25, -3.78, -3.61, -3.44, -3.51, -3.51, -3.33, -3.14, -3.14, -2.96, -3.2, -3.0, -3.55, -4.19, -4.43, -3.22, -1.3, -2.66, -2.4, -2.99, -2.21, -2.33, -1.2, -1.2, -3.35, -4.94, -4.0, -2.97, -2.7, -1.84, -1.76, 0.0, 1.6, 1.7, 0.87, 0.0, -1.6, -2.88, -3.61, -4.15, -3.69, -4.03, -6.99, -7.6, -6.18, -6.18, -6.18, 0.0, 0.0, 0.0, 0.0, 0.0, 0.0, -1.38, -1.61, -1.55, -1.61, -1.61, -1.43, -1.43, -1.29, -2.54, -2.63, -2.72, -2.72, -2.72, -2.72, -4.11, -4.11, -4.11, -4.11, -4.11, -5.31, -5.15, -4.74, -4.58, -4.58, -4.43, -4.58, -5.55, -5.55, -5.36, -5.18, -5.18, -5.6, -5.4, -5.4, -5.6, -5.08, -5.08, -5.08, -5.08, -6.08, -6.08, -6.08, -5.6, -5.2, -4.8, -4.25, -3.78, -3.61, -3.7, -3.51, -3.51, -3.33, -3.14, -3.64, -3.64, -3.42, -3.45, -3.97, -4.16, -3.91, -4.11, -2.99, -3.63, -3.4, -3.6, -2.21, -2.33, -1.05, 0.0, -0.99, -2.83, -3.63, -3.81, -3.49, -2.7, -1.84, 0.0, 0.77, 1.61, 1.69, 0.73, -0.72, -2.11, -4.5, -5.7, -5.39, -5.13, -6.91, -8.37, -8.0, -8.0, -8.0, 0.0, 0.0, 0.0, 0.0, 0.0, 0.0, -1.5, -1.55, -1.55, -1.55, -1.43, -1.43, -1.43, -1.29, -1.29, -2.63, -2.72, -2.72, -2.72, -2.72, -3.98, -4.11, -4.11, -4.11, -4.11, -5.15, -5.15, -4.98, -4.58, -4.58, -4.43, -4.58, -5.55, -5.36, -5.36, -5.18, -5.6, -5.4, -5.4, -5.4, -6.08, -5.08, -5.08, -5.08, -5.08, -6.08, -6.08, -6.08, -6.08, -5.2, -4.8, -4.25, -3.78, -3.21, -3.88, -3.7, -3.51, -4.07, -3.85, -3.64, -3.64, -3.42, -3.68, -3.68, -4.29, -4.29, -4.43, -4.11, -4.46, -4.75, -5.03, -4.46, -2.99, -2.21, -2.21, -2.06, -2.83, -3.63, -3.49, -3.49, -2.7, -1.76, -1.76, -0.78, 0.0, 0.83, 1.42, 0.0, -0.67, -2.82, -5.3, -6.28, -6.28, -6.79, -8.37, -8.48, -8.48, -8.48, 0.0, 0.0, 0.0, 0.0, 0.0, -1.33, -1.5, -1.5, -1.5, -1.55, -1.38, -1.43, -1.29, -1.29, -1.29, -2.63, -2.63, -2.72, -2.72, -2.72, -3.98, -4.52, -4.52, -4.11, -5.15, -5.15, -5.15, -4.98, -4.98, -4.81, -4.43, -5.55, -5.55, -5.36, -5.18, -5.6, -5.4, -5.4, -5.86, -5.86, -5.08, -5.08, -5.08, -4.9, -5.86, -5.86, -6.08, -6.08, -6.08, -5.2, -4.8, -4.25, -4.07, -4.07, -3.88, -3.7, -4.07, -3.85, -3.85, -3.64, -3.42, -3.68, -4.1, -4.36, -4.22, -4.65, -4.43, -4.43, -5.09, -6.7, -6.18, -5.37, -4.58, -4.22, -3.99, -3.8, -4.0, -3.63, -4.56, -3.49, -2.7, -2.59, -2.6, -1.6, -1.63, 0.0, 0.0, 0.0, 0.0, 0.0, -3.35, -6.79, -7.15, -7.76, -8.85, -8.67, -8.67, -8.67, 0.0, 0.0, 0.0, 0.0, -1.28, -1.44, -1.44, -1.5, -1.5, -1.55, -1.38, -1.43, -1.29, -1.29, -1.29, -2.91, -3.01, -2.91, -3.01, -3.01, -4.38, -4.52, -4.52, -4.52, -5.15, -5.15, -4.98, -4.98, -4.98, -4.81, -4.81, -6.0, -5.55, -5.36, -5.6, -5.6, -5.4, -5.86, -5.86, -5.86, -4.9, -4.9, -4.9, -4.9, -5.86, -5.86, -5.86, -5.86, -5.86, -5.43, -4.8, -4.25, -4.25, -4.07, -3.88, -4.5, -4.28, -3.85, -3.85, -4.08, -4.36, -4.36, -4.36, -4.36, -4.22, -4.29, -4.36, -4.74, -5.72, -5.65, -5.35, -6.01, -4.87, -4.22, -3.99, -3.8, -4.0, -3.63, -3.81, -3.81, -2.7, -2.59, -2.41, -2.37, -2.49, -1.73, -0.8, 0.0, 0.0, 0.0, 0.0, -1.47, -4.96, -8.4, -8.94, -8.94, -8.94, -8.94, 0.0, 0.0, 0.0, 0.0, -1.39, 0.0, -1.44, -1.5, -1.5, -1.55, -1.38, -1.38, -1.29, -1.43, -1.43, -2.91, -2.91, -2.91, -2.91, -3.01, -4.38, -4.38, -4.52, -4.52, -5.63, -4.98, -4.98, -4.98, -4.81, -4.81, -5.8, -6.0, -6.0, -5.8, -5.6, -5.6, -5.4, -5.86, -5.86, -5.86, -5.86, -5.86, -5.86, -5.86, -5.64, -5.64, -5.64, -6.7, -6.45, -5.21, -4.8, -4.25, -4.25, -4.25, -4.71, -4.5, -4.28, -4.56, -4.56, -4.32, -4.36, -4.36, -4.36, -4.94, -4.46, -4.56, -4.71, -5.06, -5.38, -5.68, -5.37, -5.82, -3.99, -3.15, -1.96, -1.95, -1.94, -2.97, -2.7, -3.65, -3.65, -3.51, -3.16, -3.19, -3.17, -2.65, -1.59, 0.0, 0.0, 0.0, 0.0, 0.0, 0.0, -6.32, -8.0, -8.06, -8.06, -8.06, 0.0, 0.0, 0.0, -1.39, -1.39, 0.0, -1.44, -1.5, -1.5, -1.55, -1.38, -1.38, -1.43, -1.43, -1.43, -2.91, -2.91, -2.91, -2.91, -3.01, -4.38, -4.38, -4.38, -4.38, -5.63, -5.45, -4.98, -4.98, -4.81, -5.8, -5.8, -6.0, -5.8, -5.6, -5.6, -5.6, -5.86, -5.86, -5.64, -5.64, -6.4, -6.4, -6.16, -6.16, -5.92, -5.43, -6.2, -6.2, -6.2, -5.95, -5.29, -5.29, -4.92, -4.92, -4.71, -4.71, -5.04, -4.8, -4.56, -4.61, -4.61, -4.61, -4.61, -4.46, -4.46, -4.56, -4.71, -5.37, -5.37, -5.68, -5.37, -4.75, -3.26, -1.75, -1.18, -1.07, -2.06, -2.97, -2.7, -3.65, -3.51, -4.13, -4.01, -3.91, -3.14, -2.64, -1.63, -0.79, 0.0, 0.0, 0.0, 0.0, 0.0, 0.0, -3.8, -6.01, -6.01, -6.01, 0.0, 0.0, 0.0, -1.39, -1.39, 0.0, -1.44, -1.5, -1.5, -1.55, -1.38, -1.38, -1.43, -1.43, -1.43, -2.91, -2.91, -2.91, -2.91, -3.01, -4.38, -4.38, -4.38, -4.38, -5.63, -5.45, -4.98, -4.98, -4.81, -5.8, -5.8, -6.0, -5.8, -5.6, -5.6, -5.6, -5.86, -5.86, -5.64, -5.64, -6.4, -6.4, -6.16, -6.16, -5.92, -5.43, -6.2, -6.2, -6.2, -5.95, -5.29, -5.29, -4.92, -4.92, -4.71, -4.71, -5.04, -4.8, -4.56, -4.61, -4.61, -4.61, -4.61, -4.46, -4.46, -4.56, -4.71, -5.37, -5.37, -5.68, -5.37, -4.75, -3.26, -1.75, -1.18, -1.07, -1.94, -2.97, -2.7, -3.65, -3.51, -4.13, -4.13, -3.91, -3.11, -2.47, -1.67, 0.0, 0.0, 0.0, 0.0, 0.0, 0.0, -2.17, -6.32, -6.32, -6.32, -6.32]}]